GFSMW_250_rhum_000.txt.gz
RH
100 95 74 54 37 28 33 45 46 32 36 50 56 61 55 58 55 49 47 49 49 46 40 50 57 52 57 78 99 100 100 96 66 62 68 64 57 58 54 48 48 55 53
82 64 44 32 30 34 46 44 39 47 57 63 69 72 65 43 35 36 40 40 41 48 59 59 65 70 74 79 64 57 64 77 75 69 64 55 79 57 58 60 66 65 72
32 34 34 35 43 49 47 46 50 52 61 68 67 65 54 53 46 44 44 44 50 66 67 59 55 54 44 48 47 47 49 61 74 76 56 54 64 66 80 75 89 96 98
36 41 44 45 40 41 48 47 49 55 59 62 63 56 60 53 52 58 64 62 69 70 57 47 39 43 43 44 48 44 39 41 44 66 58 61 64 61 56 80 98 100 99
35 34 34 36 36 35 39 49 55 60 58 52 47 47 48 47 47 51 64 61 68 56 56 64 67 65 53 52 44 35 36 55 44 52 54 49 56 66 72 91 100 98 97
32 32 33 35 40 51 56 52 50 45 44 46 59 67 64 62 64 61 60 58 67 74 74 66 60 56 47 54 51 45 64 66 53 51 50 45 57 80 96 98 100 91 92
44 46 46 52 56 59 55 58 62 62 68 71 64 66 71 58 51 58 67 58 48 40 39 42 54 56 50 55 68 66 58 52 40 38 44 62 81 94 92 96 98 92 91
51 60 62 61 63 55 51 60 76 84 77 76 79 60 47 42 67 90 53 65 46 52 51 50 52 58 49 50 50 50 49 37 36 43 58 74 91 88 76 79 79 79 87
70 75 76 69 69 67 57 52 68 80 69 56 53 48 49 66 58 51 60 82 61 44 38 37 48 49 50 55 56 68 58 34 35 49 66 70 66 62 65 71 72 74 80
73 70 69 69 59 51 54 55 58 57 60 62 63 61 60 62 63 76 88 93 82 60 48 43 42 52 60 52 59 81 61 40 40 50 58 52 53 59 63 74 75 72 70
68 62 73 71 64 61 64 65 62 62 67 72 77 84 87 89 96 100 100 92 78 68 62 61 62 48 43 57 69 88 76 50 41 45 46 50 64 71 70 73 72 71 76
71 73 80 87 89 87 87 98 99 100 100 100 100 100 100 100 100 100 90 77 80 69 73 73 62 48 49 53 77 73 73 52 36 40 42 47 69 76 68 70 73 74 75
85 79 85 95 95 99 100 100 100 100 100 99 98 98 100 94 76 62 58 61 59 74 58 49 40 38 44 46 48 50 34 36 34 35 36 46 59 60 66 67 74 69 68
98 88 78 76 79 85 86 86 84 84 81 83 86 76 67 63 62 53 52 55 47 41 31 36 47 54 52 35 40 39 29 27 30 34 33 36 45 51 54 60 71 65 61
99 100 100 100 88 85 93 95 93 94 87 79 74 68 60 55 47 42 36 30 29 42 43 37 36 32 34 36 29 27 26 27 30 32 33 36 40 48 54 50 49 53 53
100 100 100 100 100 98 93 94 97 89 79 67 56 50 36 31 28 25 24 28 26 28 32 24 22 26 26 27 28 30 32 32 33 34 37 39 41 43 44 43 45 46 42
99 99 94 89 78 68 66 61 52 44 38 36 34 33 28 28 28 31 29 26 20 19 23 25 29 29 30 32 34 35 35 35 37 38 40 41 41 40 36 30 30 31 34
93 87 79 70 63 55 49 41 38 34 30 25 26 28 29 29 30 28 24 24 25 25 24 24 28 30 30 30 29 30 30 30 29 29 31 32 31 26 21 22 24 28 29
57 51 48 48 39 32 29 26 25 26 24 26 30 28 29 27 26 23 20 18 17 17 16 14 13 12 12 13 14 13 14 16 15 15 16 16 18 21 24 24 22 24 18
44 37 32 28 28 28 30 29 32 35 36 33 30 23 20 16 13 12 11 11 11 9 9 9 9 10 12 14 14 13 13 13 14 14 15 15 11 11 14 16 18 14 19
43 52 56 60 56 49 43 38 30 27 26 22 21 18 16 12 10 10 9 8 9 9 9 11 11 12 11 10 10 9 9 10 11 12 11 9 11 12 15 15 14 15 21
55 44 36 30 28 28 25 23 23 28 20 16 12 11 10 12 13 11 10 10 9 10 10 9 8 10 10 9 10 12 12 10 8 8 9 11 11 11 13 14 16 17 25
32 28 25 26 30 29 23 21 21 18 14 14 13 12 11 10 9 10 9 10 9 10 10 10 9 10 11 9 9 7 7 7 9 9 10 11 12 13 13 15 17 20 25
26 24 26 25 23 19 18 14 12 12 11 9 9 9 10 10 6 5 5 6 6 6 6 6 6 6 7 8 8 9 9 10 10 10 10 11 9 10 12 16 18 23 29
22 20 19 16 12 10 9 7 7 6 7 7 7 7 6 5 5 5 5 5 5 5 6 7 8 8 8 9 10 10 9 9 9 9 11 12 12 14 17 19 21 27 16
17 19 16 10 6 6 6 6 6 6 6 6 6 5 5 5 5 6 7 9 8 8 8 8 8 9 9 9 9 7 8 7 8 8 11 13 16 17 23 26 24 15 17

GFSMW_250_rhum_003.txt.gz
RH
99 100 100 94 94 93 95 85 64 48 34 41 42 42 52 60 68 73 59 46 40 36 37 37 37 43 50 71 73 60 46 45 44 43 49 49 42 43 49 61 73 72 59
99 91 84 72 64 71 64 39 29 30 41 43 48 54 61 59 62 58 50 40 34 34 37 40 48 63 76 88 74 70 68 70 67 59 46 34 47 52 66 57 61 57 66
87 69 68 67 68 57 43 36 32 42 45 46 46 51 64 66 56 50 41 37 37 40 44 51 68 64 62 62 59 49 38 39 49 41 37 36 42 46 53 52 40 51 59
59 64 48 46 38 37 34 37 43 42 41 48 56 61 60 58 50 46 43 41 42 43 51 60 59 57 52 45 34 38 41 41 42 47 53 51 51 46 56 50 45 51 63
35 38 38 40 43 46 46 43 39 44 46 47 54 55 52 50 45 38 37 38 37 62 70 58 57 64 56 62 58 50 50 48 48 46 52 48 51 54 49 44 41 48 65
44 50 51 47 45 45 47 48 47 46 50 54 52 50 46 44 43 41 38 47 74 62 42 51 68 54 54 71 91 97 89 74 61 68 65 60 52 57 64 48 35 43 61
49 46 48 50 54 60 60 56 52 54 53 51 52 51 51 50 52 62 78 83 56 48 48 57 61 63 80 100 100 99 89 81 69 73 73 67 61 57 64 70 54 34 48
48 47 48 51 55 62 65 65 57 55 57 57 50 46 42 46 59 80 60 55 61 69 72 81 88 86 92 100 100 95 84 81 86 76 69 60 60 53 55 77 75 40 47
56 60 66 63 61 58 58 61 62 61 58 61 63 61 56 55 56 56 60 63 75 83 92 89 94 95 90 100 100 76 74 75 69 71 67 55 67 78 68 82 79 42 41
58 60 55 61 70 73 83 86 86 80 74 76 76 75 73 73 71 72 75 72 74 86 96 99 100 100 100 80 58 51 46 47 66 64 54 50 69 78 84 86 73 53 38
60 59 68 88 99 100 99 92 85 84 78 68 63 61 60 59 61 65 68 76 81 83 90 97 89 68 57 58 56 54 43 37 44 41 44 53 53 82 70 80 57 39 38
84 95 96 91 84 86 84 72 67 63 56 59 69 75 77 77 84 97 99 99 100 97 81 68 74 74 59 51 49 38 35 33 26 25 34 31 32 33 38 37 44 48 44
91 88 82 74 72 64 61 59 60 70 82 86 95 98 94 98 99 98 95 89 76 76 78 68 52 37 35 29 26 22 25 24 23 23 20 23 25 27 26 28 31 36 41
77 70 62 55 50 58 74 78 81 85 86 86 84 89 97 97 100 93 72 58 50 41 37 35 34 30 25 26 26 23 23 23 23 21 21 20 19 19 23 26 29 33 36
63 68 77 84 97 100 100 100 100 95 99 100 95 84 70 61 54 50 46 42 36 32 30 29 32 30 30 27 24 19 18 19 20 21 16 16 16 17 19 22 24 28 35
86 93 99 92 84 91 91 86 83 77 74 68 57 49 48 46 40 41 43 41 37 31 32 26 23 20 19 19 17 15 13 13 12 14 14 15 16 16 16 15 13 14 16
89 88 80 80 82 78 73 67 61 57 53 53 58 52 42 35 34 32 31 27 26 24 22 20 19 16 15 14 15 13 13 14 13 13 12 14 17 17 15 15 16 18 19
80 84 85 73 64 59 61 60 56 53 54 55 47 42 39 35 34 30 23 20 17 16 13 12 12 12 14 13 14 12 11 12 13 12 10 14 13 12 11 11 13 16 16
68 55 51 54 56 58 56 54 50 50 47 41 34 31 28 24 21 20 17 16 13 10 11 10 10 11 13 11 10 10 9 9 8 8 8 8 9 10 11 11 12 13 13
58 62 62 54 49 43 40 37 36 33 32 26 24 23 19 16 15 14 13 12 11 10 9 10 10 11 11 10 10 10 7 5 5 7 8 9 8 8 8 8 8 8 9
51 40 37 37 35 40 42 44 38 34 29 27 25 19 16 13 12 12 10 9 9 8 7 6 8 8 8 6 5 5 5 5 5 6 6 6 6 6 7 8 7 8 11
32 30 33 38 44 53 52 40 32 29 21 17 15 13 10 8 8 7 6 5 5 5 5 5 5 5 5 5 4 5 5 5 5 7 8 8 7 7 8 8 8 10 13
31 35 42 52 58 55 39 33 21 14 10 9 7 7 7 6 6 5 4 4 4 4 4 5 5 7 7 6 6 7 8 8 7 8 8 8 8 9 10 9 10 11 12
44 57 65 61 57 48 27 13 9 6 5 6 6 6 6 6 5 4 4 4 4 4 4 5 6 6 7 6 7 7 7 7 8 7 7 8 10 11 10 10 12 13 14
67 83 83 79 58 35 13 6 5 6 6 6 8 7 6 5 5 5 4 4 4 4 5 5 6 7 7 6 6 5 5 5 6 7 8 8 8 9 9 10 12 16 17
86 91 86 62 23 15 8 7 7 7 8 8 6 5 5 5 5 5 6 6 6 5 5 4 4 5 5 5 6 6 5 5 5 6 6 7 8 8 9 11 13 19 21

GFSMW_250_rhum_006.txt.gz
RH
36 40 44 52 53 57 64 72 89 100 100 100 82 88 40 40 46 41 50 60 64 74 77 70 60 39 34 38 41 48 54 66 62 56 44 36 46 48 51 48 44 48 59
55 72 82 85 89 90 90 94 99 97 89 84 50 32 38 43 51 57 60 61 60 55 48 44 40 35 37 39 45 49 60 67 64 52 44 48 59 70 76 79 78 73 75
64 77 93 98 99 98 93 87 84 82 70 52 38 33 39 46 47 50 52 55 56 51 45 41 38 38 40 43 43 60 68 58 65 69 54 58 66 76 99 90 84 85 88
41 55 74 91 97 100 100 95 84 69 50 43 41 43 50 41 42 44 44 48 51 48 42 41 38 36 36 40 56 65 46 50 63 68 66 68 70 74 85 100 92 82 83
37 47 66 84 98 100 86 53 40 39 38 38 50 57 55 50 45 42 47 49 50 50 48 48 44 42 44 60 76 58 58 70 72 86 91 92 95 100 77 70 79 69 56
31 40 64 77 75 47 43 46 49 48 48 49 47 46 47 52 59 64 63 60 55 52 47 47 48 52 82 82 60 62 79 96 99 100 100 100 100 100 99 60 56 58 75
37 36 41 44 44 51 53 54 51 47 46 52 59 63 63 61 55 51 50 49 49 50 53 54 54 60 62 61 65 68 74 72 64 66 70 91 100 86 69 63 66 50 48
48 51 53 56 55 57 62 57 56 58 58 62 67 76 79 68 67 66 64 64 68 71 71 73 70 70 72 72 67 63 60 55 60 78 99 98 77 72 77 66 49 43 56
50 51 54 53 65 80 75 80 85 83 83 77 71 70 76 68 64 68 69 68 66 65 67 68 67 61 54 52 54 58 76 94 97 94 72 59 60 79 81 69 74 49 36
53 58 66 79 91 90 86 78 69 67 74 76 78 78 74 74 72 68 65 62 58 54 51 51 53 53 56 55 58 71 73 66 60 56 54 62 64 51 44 36 38 31 30
51 57 69 73 76 81 80 76 86 93 82 78 76 72 68 63 63 67 67 66 64 61 65 76 84 87 92 92 69 56 51 44 43 42 30 29 26 22 25 28 26 27 29
62 65 65 61 60 67 79 87 85 84 84 78 74 74 76 70 67 67 72 80 90 88 78 78 81 65 57 51 48 42 39 29 27 29 26 25 22 22 20 20 21 20 20
91 100 100 97 92 91 88 79 74 68 63 73 75 66 65 67 80 83 92 97 88 73 61 55 52 47 41 38 34 32 27 24 24 24 21 18 18 17 16 14 16 19 19
100 100 92 81 71 60 53 60 66 72 63 57 60 67 88 98 100 95 80 64 56 50 45 37 32 30 31 27 24 23 21 20 18 15 13 13 14 15 14 14 16 19 20
77 65 59 53 57 69 74 67 62 63 78 97 100 100 89 70 56 52 48 47 43 39 34 29 27 24 21 19 16 14 12 13 14 13 11 12 12 13 14 11 14 14 13
58 55 55 60 58 50 44 54 80 88 80 65 53 52 56 49 49 44 44 38 34 32 26 22 18 17 16 15 14 12 10 11 12 14 14 11 11 10 9 10 11 12 13
48 55 66 54 44 62 68 65 64 55 52 49 49 48 50 46 44 39 37 34 31 26 21 18 14 14 14 14 14 12 11 12 11 11 9 10 9 9 8 9 9 7 7
79 59 48 55 67 77 75 66 53 46 43 43 42 43 43 39 34 32 31 27 23 19 15 14 13 12 11 9 9 9 8 7 6 6 6 8 7 7 6 5 6 6 6
51 46 47 50 53 56 48 42 39 37 40 43 44 45 45 42 33 33 28 21 15 11 10 9 8 7 8 8 6 5 5 4 4 4 5 5 6 6 5 5 6 7 8
46 42 47 47 41 35 37 36 42 53 56 56 57 44 37 32 20 18 14 12 9 6 6 7 7 8 6 5 4 4 4 4 4 5 6 7 6 6 6 6 7 9 11
53 42 37 33 35 41 51 62 62 64 66 61 50 38 23 14 11 8 6 6 6 6 6 5 5 4 4 4 4 4 4 4 5 5 6 8 7 7 7 8 9 10 11
38 35 32 33 42 53 56 54 63 76 73 62 36 16 10 8 7 6 7 7 6 4 3 4 4 4 4 4 4 4 4 4 4 5 6 6 6 6 6 7 9 9 9
30 29 34 43 60 73 74 78 84 68 59 32 13 8 7 8 8 7 6 4 4 3 3 3 3 4 4 4 4 4 4 4 4 4 5 6 6 6 6 6 8 9 10
34 41 48 64 74 81 72 71 73 60 26 12 8 8 8 8 6 5 4 4 4 3 3 3 3 4 4 4 4 4 4 4 4 4 4 5 6 6 6 6 8 9 9
45 55 60 69 80 74 77 78 45 22 13 11 9 9 8 6 5 4 4 4 4 3 2 3 3 3 4 4 3 3 3 3 3 3 3 4 5 6 6 6 7 8 9
63 60 71 79 92 91 78 46 28 16 11 10 9 8 6 4 4 4 4 5 4 4 3 2 2 3 3 3 4 3 3 3 3 3 3 4 4 5 6 6 7 7 9

GFSMW_250_rhum_009.txt.gz
RH
27 18 27 29 26 27 18 28 35 42 50 65 77 91 100 100 89 89 90 50 40 45 45 48 58 66 69 66 57 51 46 49 40 35 37 40 41 56 63 50 57 69 75
26 22 38 37 34 44 47 52 61 70 77 90 94 94 93 92 91 60 37 34 39 42 45 56 61 60 61 61 52 41 37 35 34 34 34 38 52 83 68 57 72 79 85
25 22 29 46 56 69 83 94 99 100 100 97 94 94 92 82 60 47 33 33 40 44 45 48 50 50 47 49 44 42 40 38 43 46 42 44 69 89 83 70 79 89 89
27 22 21 26 47 54 74 85 89 95 98 95 85 80 76 64 43 35 35 39 47 45 42 43 42 46 45 46 50 56 63 74 64 68 70 68 65 60 53 62 77 99 100
26 23 24 25 34 60 81 97 95 100 100 97 90 63 47 44 46 48 51 50 45 43 46 50 52 52 54 57 64 68 61 56 58 69 71 62 60 67 67 70 76 79 87
24 25 28 33 31 41 54 73 96 99 81 49 52 60 68 71 73 82 86 86 86 86 84 79 77 85 88 79 72 68 69 69 65 62 65 68 69 73 68 58 54 60 92
29 30 31 32 29 27 30 42 51 48 54 62 64 63 64 72 86 85 90 88 89 92 96 98 94 84 79 79 77 74 70 72 72 69 64 63 61 62 72 64 67 69 75
42 35 34 35 37 38 40 48 58 61 60 63 62 64 68 66 67 72 80 84 87 91 91 88 85 79 72 68 67 60 56 57 57 57 67 63 65 71 61 56 62 64 73
55 44 40 42 43 49 58 58 56 57 61 65 71 76 77 72 68 75 82 80 79 79 70 60 54 54 58 58 47 50 53 54 46 43 43 39 39 49 64 68 57 47 39
65 54 48 46 48 52 56 56 57 61 66 68 66 63 68 84 88 82 74 67 58 60 62 60 57 57 59 67 70 64 61 54 58 58 54 47 40 40 38 36 35 34 28
80 71 60 56 58 56 53 61 69 70 74 90 97 95 88 70 61 60 62 64 67 74 80 92 94 90 87 77 73 67 55 52 45 40 35 30 24 21 22 21 19 19 18
100 90 82 75 72 78 79 77 95 99 87 77 73 61 54 55 57 61 68 80 88 100 100 88 87 74 56 46 46 43 35 28 22 23 20 19 16 16 15 15 15 15 15
100 100 100 100 100 99 93 95 91 76 68 63 59 55 58 59 66 93 100 100 98 76 63 52 46 41 38 34 28 24 22 20 22 19 18 16 16 15 14 15 14 10 9
100 100 100 100 93 95 100 85 70 62 54 54 56 57 65 90 100 100 88 71 56 48 38 36 34 32 29 26 25 24 22 20 16 15 15 14 12 8 10 11 10 10 9
100 100 100 100 90 76 67 58 51 49 52 56 54 63 75 77 58 45 43 38 36 39 38 33 34 34 31 28 25 20 16 12 11 10 8 8 8 7 7 8 9 7 6
100 87 78 66 58 54 52 41 42 49 58 61 63 50 41 40 37 48 46 51 49 40 39 42 32 27 21 15 13 11 9 8 8 8 8 9 7 7 5 5 4 4 4
67 59 56 56 52 45 43 49 59 66 62 46 38 33 34 44 53 63 66 67 50 40 31 25 19 14 11 9 8 8 7 7 8 6 5 5 6 6 5 5 4 5 5
58 57 56 51 48 54 64 71 62 45 43 35 34 43 50 59 73 79 62 47 37 26 20 14 11 9 8 8 7 7 6 5 5 4 5 5 5 6 5 6 6 5 6
62 52 49 59 69 66 59 47 36 29 30 36 40 50 63 70 74 58 41 31 20 15 12 9 8 8 6 6 5 4 4 4 4 4 4 4 5 5 5 5 6 7 8
57 75 86 74 61 43 35 32 28 28 36 50 57 61 67 71 66 42 24 17 12 10 7 6 6 5 5 4 4 3 3 4 4 4 4 5 4 5 5 5 6 6 7
97 81 68 51 44 34 32 34 32 34 51 63 75 75 72 65 38 19 12 10 7 6 6 5 5 4 4 3 3 3 3 3 3 3 3 4 4 4 4 4 5 6 6
73 56 47 36 35 37 36 34 44 53 66 74 79 75 56 38 18 11 9 7 7 6 5 4 4 3 3 3 3 3 3 2 2 2 3 3 3 3 3 3 4 5 6
55 43 40 49 40 36 38 51 62 71 79 77 64 51 40 18 10 9 7 8 6 4 4 3 3 4 4 4 3 2 2 2 2 2 2 2 3 3 3 3 4 5 6
43 49 42 34 30 41 48 57 66 76 81 69 61 49 20 11 9 8 8 6 4 3 3 3 4 4 4 3 3 2 2 2 2 2 2 3 3 3 3 3 4 4 5
43 37 32 31 38 42 52 63 75 84 70 65 45 26 12 9 9 9 6 4 4 4 3 3 3 3 4 4 3 3 3 3 3 3 3 4 4 4 4 4 4 5 5
32 30 32 35 40 48 57 73 82 70 66 42 24 13 8 8 8 6 5 6 5 4 3 3 3 3 3 4 3 3 2 2 3 3 4 4 4 4 4 4 5 5 6

GFSMW_250_rhum_012.txt.gz
RH
100 88 71 46 24 18 22 30 28 22 25 27 28 40 48 60 71 73 88 96 88 82 78 58 41 32 36 41 42 42 53 57 54 55 55 50 49 45 43 36 37 37 43
100 86 68 39 20 17 22 31 34 38 39 44 48 57 72 85 93 92 91 84 72 69 58 48 38 33 38 43 46 46 49 51 51 40 37 38 44 58 59 65 63 63 67
95 74 63 35 20 19 22 35 44 54 66 70 70 74 79 89 90 78 74 76 71 61 46 39 37 40 49 54 50 44 41 42 45 46 40 40 46 54 76 87 92 96 99
80 68 60 42 23 21 22 25 38 58 66 77 84 94 100 96 81 71 58 45 40 40 42 48 55 56 55 55 61 64 60 55 49 61 72 62 59 60 57 76 80 85 95
89 70 55 39 24 21 22 25 35 55 64 65 74 89 88 77 67 47 48 49 49 51 54 56 58 64 67 63 59 58 64 74 76 74 73 79 78 76 65 57 69 63 63
89 72 54 42 27 22 27 31 31 34 51 63 78 86 80 58 55 63 65 71 74 82 92 91 80 74 77 85 90 95 95 96 98 99 97 85 76 75 72 59 49 44 53
95 72 50 46 35 24 28 33 37 35 34 37 47 49 53 68 66 70 85 87 84 76 66 62 67 72 72 76 83 85 80 74 70 65 67 73 64 58 57 50 43 42 51
100 88 56 46 42 34 32 36 39 39 43 50 60 67 62 64 69 65 61 61 59 62 71 78 86 89 83 71 62 58 60 61 57 54 57 66 62 56 42 44 42 39 36
100 93 69 63 54 46 43 42 44 46 52 58 57 55 55 57 63 71 77 84 83 85 81 66 66 64 67 73 59 62 71 68 71 65 67 65 53 40 32 30 26 20 14
68 94 67 71 71 63 59 58 60 66 71 70 72 76 77 88 90 96 89 72 64 61 58 61 71 66 65 74 91 88 72 57 46 42 39 34 28 26 22 21 21 19 14
55 45 73 80 92 86 88 87 89 91 92 95 94 96 100 100 98 75 54 51 62 63 73 77 91 90 70 49 44 41 39 38 33 33 28 26 23 24 24 24 22 20 18
30 33 46 99 100 100 100 100 100 100 99 95 100 100 94 82 62 50 56 60 68 77 75 58 43 39 37 43 42 42 42 39 34 29 27 24 19 18 21 19 16 10 9
36 62 79 100 100 100 100 100 90 88 92 87 86 86 70 57 56 59 66 73 79 57 43 38 40 42 49 46 44 39 35 30 26 21 18 14 14 11 10 8 8 8 7
46 89 100 100 100 100 90 84 96 88 83 85 71 57 62 66 68 72 77 62 39 34 37 42 42 45 45 43 35 30 24 19 14 13 10 8 7 7 7 7 6 5 5
83 100 100 100 99 95 99 91 85 77 71 60 68 70 66 67 70 63 43 34 29 33 42 52 50 44 42 36 23 18 13 11 10 8 8 7 6 6 5 4 4 3 3
100 100 100 100 100 92 81 72 70 71 65 71 65 64 65 63 40 36 33 30 39 49 57 51 54 43 31 22 15 13 10 8 7 7 6 5 4 4 3 3 3 3 3
98 92 100 92 81 77 66 60 60 70 72 66 66 68 47 37 32 31 38 49 55 60 64 59 37 31 20 17 16 9 7 6 5 4 3 3 3 3 3 3 3 3 4
100 97 80 69 65 60 56 60 64 71 73 72 57 44 35 30 36 44 49 54 59 59 59 52 39 20 16 11 8 7 5 4 3 2 2 2 3 3 3 3 4 4 4
87 70 64 62 60 52 68 84 84 80 67 49 39 30 31 37 43 42 48 60 73 78 57 28 17 15 10 8 7 4 3 3 2 3 3 2 2 2 2 2 3 4 4
73 66 67 67 75 89 82 78 71 56 49 34 37 37 36 38 40 48 62 71 71 46 20 16 12 8 7 7 4 3 3 2 3 3 2 2 2 2 2 2 2 2 3
72 72 87 89 79 82 72 61 56 43 43 50 44 35 37 40 49 53 65 66 36 19 14 11 7 7 6 4 3 3 3 2 2 2 2 2 2 2 2 2 2 2 2
88 86 90 89 80 70 61 51 45 53 49 42 41 37 40 47 61 71 68 47 18 12 10 7 7 7 5 4 3 4 3 2 2 2 2 3 3 2 3 3 3 3 3
82 80 81 75 65 55 46 48 54 51 49 44 37 43 53 61 70 66 50 26 14 9 6 6 6 5 4 4 4 4 3 2 2 2 2 2 2 2 2 3 4 4 4
85 91 81 66 48 43 44 51 53 50 40 38 45 51 63 70 71 55 30 14 10 7 6 5 5 4 4 4 5 4 3 2 2 2 1 1 1 2 3 3 4 4 4
90 74 54 43 48 56 53 43 38 37 39 46 50 60 67 68 57 42 19 11 8 6 5 4 4 4 4 4 4 3 3 2 2 2 2 2 2 2 4 5 5 5 4
58 42 45 56 56 46 38 39 41 42 46 51 59 67 70 59 39 22 13 9 8 7 6 4 4 4 4 4 3 4 2 2 2 3 2 2 2 3 5 5 6 5 6

GFSMW_250_rhum_015.txt.gz
RH
45 99 100 100 80 77 46 36 20 20 24 28 31 25 29 26 29 37 42 54 66 76 94 94 78 68 73 72 56 47 36 34 30 31 37 44 44 44 44 46 47 49 53
38 80 100 98 80 72 48 30 20 20 24 27 37 48 48 50 51 59 69 85 96 88 83 83 82 72 53 43 41 40 43 45 41 35 37 39 46 49 55 58 66 74 79
31 78 100 100 85 66 60 44 26 18 22 29 40 54 64 74 80 86 91 94 87 82 76 52 45 50 55 56 53 49 43 43 48 42 39 40 42 42 63 79 81 80 75
29 61 100 100 93 67 50 44 31 22 24 28 50 66 69 74 79 83 82 81 76 64 46 54 60 60 57 53 49 48 48 47 49 52 55 48 43 43 43 55 58 61 67
22 34 97 100 92 71 50 41 31 24 26 28 29 35 43 51 58 63 66 60 54 51 61 58 53 51 49 46 46 52 59 71 84 83 78 77 82 79 61 53 64 61 59
19 26 40 99 93 89 55 41 36 31 28 29 29 31 32 35 38 42 47 51 59 61 62 61 58 59 73 87 96 92 81 67 63 63 66 66 62 56 49 40 42 41 44
21 20 26 43 85 100 81 54 43 38 34 32 37 40 43 47 53 59 66 69 71 70 66 72 85 80 73 72 68 65 66 72 78 81 75 60 51 48 42 39 36 29 28
26 24 24 23 30 71 93 78 62 51 49 51 53 55 59 63 68 74 79 82 80 78 89 96 85 87 93 82 76 73 80 82 69 58 52 48 42 38 37 33 31 25 25
23 24 22 24 27 30 65 98 87 73 67 69 70 77 83 86 90 91 91 92 97 100 94 89 99 97 80 61 71 68 66 57 43 41 38 40 41 38 35 30 24 21 19
22 18 20 22 25 27 46 62 81 82 93 90 92 95 95 98 97 90 85 91 99 98 98 92 71 58 61 61 58 58 47 41 37 39 45 37 37 36 31 26 20 18 16
22 18 21 25 25 26 30 64 71 73 84 94 97 98 98 97 87 77 84 92 88 74 59 58 58 60 60 55 49 42 39 37 38 39 43 43 34 26 22 19 18 16 11
21 19 25 28 28 30 33 44 69 82 88 94 100 100 97 84 79 79 73 68 58 56 56 58 63 59 43 36 34 37 38 45 46 42 45 36 20 18 17 14 11 6 6
20 20 24 28 28 30 30 35 78 84 84 95 100 92 82 85 80 69 61 58 64 62 67 70 52 42 34 38 40 41 43 41 44 42 25 19 17 14 10 6 5 5 4
21 21 28 31 31 29 30 34 52 60 87 99 91 87 82 76 71 59 64 65 69 71 56 48 41 32 36 40 43 45 45 43 35 23 16 13 9 6 5 5 4 3 3
23 23 26 30 35 35 30 32 53 80 98 94 84 86 78 72 78 65 59 70 67 55 47 38 30 35 40 42 45 48 48 35 20 15 11 8 5 5 4 3 3 3 3
24 24 30 39 37 35 34 44 90 99 89 81 80 93 89 68 52 55 60 59 55 47 34 30 34 42 46 54 56 53 36 22 12 8 6 5 5 4 3 3 3 3 2
26 31 39 39 36 40 58 93 99 89 84 88 100 81 67 50 58 59 58 52 34 29 34 39 41 46 56 59 54 32 22 14 8 5 5 5 3 3 3 3 3 2 2
40 41 40 45 60 82 100 96 87 95 99 89 65 54 54 56 56 52 36 31 34 39 40 42 47 54 59 48 37 20 14 7 5 5 4 3 2 3 3 3 2 2 2
42 46 54 72 84 83 88 85 95 98 91 63 54 58 59 56 44 39 35 38 41 43 45 44 52 56 51 37 20 11 8 5 5 5 3 2 3 3 2 2 2 2 2
59 73 80 77 68 80 100 99 97 86 59 58 60 58 48 39 38 42 40 40 46 44 45 52 51 48 42 19 11 7 5 5 5 4 2 2 3 3 2 2 2 2 2
88 86 77 81 82 97 100 95 75 62 62 62 51 43 39 39 40 41 44 46 45 45 54 58 51 32 16 9 8 6 5 4 4 3 3 3 3 3 2 2 2 2 1
72 70 84 96 100 95 87 71 67 64 52 44 41 40 42 42 44 47 50 47 45 54 55 47 26 13 10 7 5 6 5 4 3 3 3 3 3 2 2 2 2 2 2
91 93 100 98 89 80 76 67 59 46 43 42 45 42 46 47 49 51 46 48 58 55 27 15 12 10 7 5 6 6 5 4 4 3 2 3 2 2 2 2 2 2 3
99 96 89 84 80 69 69 60 55 50 52 49 45 47 51 49 49 50 52 59 48 22 13 9 8 6 5 6 6 5 4 4 4 3 3 2 2 3 4 2 2 3 5
87 82 78 70 72 68 61 56 52 51 50 48 50 51 52 49 50 55 62 50 21 10 8 8 6 5 6 6 5 4 4 4 4 3 2 3 4 4 3 2 3 5 6
84 84 86 76 67 64 58 53 53 50 50 52 56 51 48 50 56 59 48 23 9 9 8 5 5 6 5 4 4 4 4 3 3 2 3 4 4 5 3 3 5 7 7

GFSMW_250_rhum_018.txt.gz
RH
16 19 27 55 100 100 85 79 63 50 29 32 18 20 30 38 34 31 29 27 30 35 44 49 58 83 100 98 83 70 65 46 40 42 47 48 51 52 46 49 48 48 49
15 20 26 40 73 100 96 73 58 55 40 35 22 20 23 36 47 54 55 56 59 68 83 94 100 98 89 80 72 52 44 50 46 41 43 52 69 66 64 63 63 60 61
18 17 24 32 80 100 95 79 69 55 43 30 27 27 26 34 41 58 75 80 86 90 90 92 83 79 77 72 48 52 53 51 63 58 44 42 46 49 66 71 64 54 46
20 18 17 22 39 61 91 87 84 60 43 33 30 32 30 27 33 43 46 56 61 62 66 67 70 70 56 54 65 64 62 57 50 57 64 55 43 38 39 44 46 59 73
20 19 16 17 23 29 71 95 95 91 64 42 36 34 31 30 32 32 32 33 36 39 43 49 56 62 74 70 64 54 47 50 58 61 69 76 76 65 47 42 44 49 48
22 21 19 16 17 22 33 66 99 97 95 86 64 47 41 40 37 39 42 44 47 52 58 62 63 64 59 57 59 68 76 77 69 65 64 57 54 54 56 50 47 41 39
24 24 22 21 18 16 22 27 38 44 62 93 97 74 68 57 53 55 55 53 54 60 65 67 71 76 83 83 79 74 73 71 76 76 69 67 56 46 41 36 38 41 41
28 23 20 21 20 19 20 20 24 27 28 33 57 78 90 88 81 72 70 71 70 77 83 88 92 88 81 75 71 73 80 78 68 60 57 52 49 38 38 40 41 39 40
26 25 24 20 20 21 22 24 25 23 24 24 26 43 85 89 89 94 91 95 98 99 100 100 88 75 71 68 72 62 58 62 58 50 50 48 42 36 39 39 35 28 19
27 28 24 22 22 21 22 24 25 24 25 28 28 35 63 70 82 90 98 100 100 100 95 83 78 79 73 58 52 52 50 51 55 53 47 39 36 36 37 34 34 32 21
35 32 28 25 25 24 23 22 24 28 27 31 31 30 32 40 47 67 87 91 95 90 81 76 75 62 56 54 50 51 55 54 50 42 39 38 36 33 34 38 33 26 23
34 36 34 29 26 24 22 22 21 23 30 30 30 30 29 33 36 56 74 90 84 75 84 64 61 59 61 52 53 57 53 42 38 38 37 37 34 33 34 30 27 23 15
33 31 34 32 26 22 22 21 21 22 24 28 30 33 34 44 61 88 84 93 83 76 69 64 62 56 53 59 54 43 37 38 38 38 35 32 33 32 30 29 20 12 6
30 30 32 32 26 22 21 21 22 22 24 27 35 37 37 55 82 94 98 88 79 76 73 55 46 59 56 42 35 38 40 38 38 37 37 36 35 32 23 19 9 5 4
28 29 31 29 24 22 22 23 23 22 26 36 35 41 78 96 97 96 92 92 73 63 50 57 63 43 33 38 39 38 42 39 41 43 41 38 26 16 11 7 4 4 4
31 32 31 25 22 23 25 25 23 27 34 36 50 80 93 100 100 97 78 71 60 52 58 41 34 39 39 40 42 43 42 44 45 40 31 18 12 8 5 4 5 4 3
28 28 25 22 22 25 28 27 34 38 46 65 76 97 99 94 82 72 61 57 57 40 33 37 38 38 42 47 46 46 46 47 39 23 15 9 6 4 4 5 5 4 3
26 24 23 25 27 30 28 39 52 63 70 86 85 78 96 82 58 55 60 52 30 33 37 37 41 48 54 52 47 46 47 37 22 13 8 6 4 4 5 4 4 4 3
23 22 24 27 33 41 58 67 77 86 92 81 91 82 62 50 59 62 35 31 36 38 39 44 53 59 54 49 49 43 34 22 13 8 5 4 4 4 3 4 4 4 3
27 31 42 51 65 87 82 89 78 87 91 85 68 57 63 64 54 35 38 39 38 40 49 61 54 52 52 48 39 27 17 10 8 6 4 4 4 3 3 4 4 3 2
47 64 80 88 92 92 80 78 81 88 82 67 66 70 64 50 43 42 37 38 47 59 56 52 54 50 43 33 22 12 7 6 6 5 5 4 4 4 4 3 3 2 3
88 96 92 84 88 80 70 83 91 76 72 71 70 59 44 43 42 41 44 53 52 54 53 54 49 39 28 17 9 8 7 5 4 5 4 4 4 4 3 2 2 3 4
72 71 63 75 84 71 74 70 72 74 72 66 50 45 44 43 46 52 52 52 52 51 50 45 34 23 11 8 8 7 6 5 5 4 4 4 4 3 2 3 3 4 4
61 60 78 73 68 70 70 77 75 71 57 49 52 52 54 59 60 53 50 48 50 47 39 25 14 8 8 8 6 6 6 6 6 5 5 4 3 3 3 3 3 4 4
66 70 74 68 70 76 75 70 60 56 60 58 60 60 68 65 54 51 52 51 44 30 17 9 7 8 7 6 5 6 6 5 5 5 4 3 3 3 3 3 4 4 4
65 60 66 73 69 67 59 56 62 61 58 60 72 76 58 52 50 53 46 34 21 11 7 7 7 6 5 5 6 6 5 4 5 4 3 3 4 3 3 4 4 4 6

GFSMW_250_rhum_021.txt.gz
RH
19 19 17 15 18 25 45 100 100 81 82 60 50 40 35 28 30 32 37 39 37 35 32 30 30 36 40 45 58 71 86 99 95 95 87 78 54 58 57 60 68 66 63
18 17 16 17 20 28 44 74 90 93 85 69 62 53 39 29 28 30 36 43 52 61 59 60 61 67 74 82 91 100 100 99 92 66 60 53 66 66 60 60 62 72 83
18 16 16 17 19 22 42 64 88 91 94 82 76 58 45 35 32 34 35 33 38 51 61 68 80 86 86 85 77 74 72 72 78 59 49 52 53 58 68 85 95 90 80
19 20 19 18 17 18 21 27 40 55 73 80 81 82 69 68 51 39 38 34 34 36 37 39 45 46 45 43 45 49 51 54 62 65 64 58 49 47 54 62 63 70 76
21 22 21 21 20 16 16 18 22 27 43 62 76 81 61 55 76 76 67 61 52 44 42 43 42 41 42 47 54 58 57 54 55 56 61 68 66 61 52 47 44 45 46
24 25 24 23 21 20 19 18 16 15 18 21 24 23 23 27 32 34 38 46 52 54 62 69 71 68 67 65 66 64 62 61 63 69 69 60 59 56 57 50 51 52 49
24 24 31 24 23 22 23 21 19 18 18 17 16 16 19 20 22 23 24 32 53 55 54 61 72 86 90 84 78 80 87 90 83 69 69 73 73 56 55 51 43 44 53
33 34 31 27 26 25 25 24 21 23 22 20 18 18 20 20 20 22 26 28 29 31 32 37 44 51 63 69 70 81 87 77 84 82 68 66 57 56 51 49 49 44 43
36 35 32 31 28 27 27 27 27 26 23 20 19 19 18 18 20 23 25 26 27 29 31 37 40 40 48 60 73 92 80 78 78 68 63 54 51 57 54 46 40 37 32
37 38 38 34 31 32 35 34 33 30 26 22 20 19 19 19 19 20 22 25 31 31 32 34 39 55 89 95 93 92 88 76 68 60 54 63 58 45 44 43 38 34 31
40 36 36 34 34 33 32 31 32 33 31 26 22 20 20 20 20 20 22 26 30 35 38 45 64 80 99 100 94 80 77 68 58 55 56 43 41 42 40 37 35 32 29
37 39 38 33 28 29 30 30 30 30 30 28 24 21 21 20 20 23 24 31 36 37 49 75 96 100 94 91 88 70 62 56 52 43 40 41 42 42 36 32 28 23 20
34 35 32 28 28 28 30 31 31 30 29 29 24 22 20 21 23 27 33 37 43 54 79 95 96 78 86 75 60 60 56 40 38 40 39 40 38 31 26 21 18 19 19
39 35 34 32 29 29 30 30 28 28 28 27 24 21 22 24 29 34 42 58 64 73 90 84 81 77 56 60 62 40 35 38 39 39 42 34 30 26 20 21 20 16 8
40 37 34 31 30 29 28 28 27 27 26 26 23 23 25 29 33 48 66 61 81 82 82 74 63 59 63 43 36 35 36 37 43 41 36 32 26 24 20 14 9 6 5
32 29 28 29 30 29 28 27 28 26 25 23 23 27 29 38 47 73 72 88 89 77 63 57 64 58 42 33 32 32 40 43 41 37 30 27 23 19 10 6 6 5 4
29 32 32 32 31 28 26 25 25 25 24 25 28 35 53 67 86 82 92 93 77 59 59 60 55 37 32 31 36 42 44 40 34 30 25 20 14 6 5 6 5 6 5
34 34 33 31 28 25 24 27 26 25 29 34 49 69 81 81 84 85 78 59 56 59 57 49 36 35 37 42 48 42 38 34 31 22 14 7 5 5 5 5 6 6 4
37 34 31 27 25 26 27 26 29 34 46 60 71 71 82 90 66 60 59 61 58 54 49 40 38 44 49 48 42 35 35 32 22 10 6 5 4 4 5 5 4 4 4
31 27 25 27 28 26 31 35 51 59 64 67 78 82 66 60 63 62 63 59 55 48 43 48 50 53 55 44 36 34 26 14 8 7 6 4 4 5 4 4 4 4 4
27 28 27 32 39 42 53 72 70 68 61 67 77 66 61 60 65 63 56 52 50 48 49 54 58 51 43 38 31 18 9 7 6 6 5 5 5 4 4 3 3 3 3
38 42 45 46 56 81 72 66 63 71 84 78 65 61 66 63 53 53 52 51 49 56 59 59 52 42 35 24 13 8 7 6 5 5 5 5 4 4 4 3 3 3 3
52 56 64 69 70 65 66 65 68 71 65 61 67 63 57 54 55 56 54 57 60 61 56 48 40 32 19 10 7 7 6 5 4 5 4 4 4 4 4 3 3 3 3
88 79 72 76 78 66 58 58 59 58 58 64 53 54 58 61 59 60 63 66 59 51 44 38 27 15 7 7 6 6 6 6 5 4 4 4 4 4 4 4 3 3 4
99 91 75 66 59 53 53 51 52 58 58 54 56 61 65 67 69 69 66 58 48 40 34 19 10 7 7 6 6 6 6 5 4 4 4 4 4 4 4 3 3 4 5
69 59 54 51 48 49 52 54 55 56 60 62 69 70 70 71 71 65 57 46 38 30 16 8 8 7 6 6 6 6 5 4 4 4 4 4 4 4 3 3 5 6 6

GFSMW_250_rhum_024.txt.gz
RH
76 64 38 28 24 20 19 16 17 18 40 87 83 75 90 67 63 56 41 30 30 34 33 33 36 42 51 50 47 47 49 54 58 68 72 77 86 96 100 98 95 92 69
52 30 25 21 20 18 17 17 20 25 46 68 84 83 84 72 76 64 52 40 37 37 38 38 37 40 44 51 59 65 68 72 74 82 83 92 98 83 76 71 69 63 80
28 24 21 20 18 17 17 18 20 24 41 51 57 61 57 71 76 74 67 62 67 71 68 64 53 50 43 40 40 41 41 46 48 45 43 46 46 50 58 64 66 64 66
26 23 22 21 20 18 20 17 16 18 20 24 27 35 46 54 49 33 27 26 31 38 40 50 58 54 56 66 67 68 68 70 69 70 72 68 65 68 68 78 85 96 100
25 26 26 24 22 22 21 18 18 18 17 17 17 17 17 16 16 17 19 20 18 18 19 20 21 23 26 28 28 28 28 30 28 34 53 70 73 74 61 65 70 71 75
26 29 26 24 26 26 22 19 20 18 20 21 21 19 19 18 17 16 15 15 16 16 16 17 19 20 20 21 22 22 26 27 26 26 29 38 49 58 66 76 70 66 81
28 31 27 28 31 28 26 24 23 23 23 24 24 25 25 22 20 18 17 16 15 16 16 16 16 16 17 16 17 21 23 25 27 37 53 72 94 84 83 73 76 63 65
30 31 30 29 27 28 28 25 28 28 29 29 31 30 28 26 24 23 21 19 17 16 16 16 18 16 16 15 19 24 26 32 43 63 81 89 98 97 90 73 60 53 50
35 35 37 35 37 34 33 33 33 34 33 30 28 28 26 25 27 28 26 23 20 18 18 19 19 18 17 20 26 31 36 55 74 97 100 94 79 79 83 61 49 40 29
45 44 43 39 39 38 38 37 35 32 30 30 29 27 25 25 25 24 25 25 23 22 21 20 20 20 23 32 42 57 75 86 93 80 74 90 78 59 55 48 37 28 25
48 43 38 39 38 42 44 39 39 30 28 29 29 28 26 26 27 27 26 26 25 23 21 22 22 26 42 57 72 84 90 80 80 93 75 61 58 53 44 32 27 28 29
41 37 42 44 43 43 40 36 32 32 31 29 28 27 27 28 28 27 26 25 23 22 23 26 29 41 69 80 80 90 87 83 75 60 59 57 48 32 26 25 26 26 24
39 41 47 48 48 40 36 34 34 34 30 29 29 29 28 26 25 25 25 24 24 24 27 36 54 75 80 86 96 90 75 61 57 59 53 40 30 26 26 26 24 21 17
43 46 45 44 42 37 36 39 38 33 30 29 30 30 27 25 25 25 25 23 26 30 41 62 84 90 86 79 72 59 59 63 57 46 35 31 27 24 22 20 15 11 7
43 44 45 43 42 42 41 38 32 29 31 32 32 30 27 25 25 26 25 28 31 47 71 79 83 78 65 57 59 62 61 47 40 39 33 28 23 20 17 12 7 6 5
46 49 46 44 41 37 37 32 30 33 33 33 33 28 24 25 26 26 29 44 56 62 75 72 62 57 60 61 59 42 40 44 36 31 25 22 18 15 10 6 6 6 5
35 34 34 34 35 33 29 33 34 35 37 34 27 25 27 26 29 37 48 54 67 73 66 63 58 59 59 44 41 44 42 36 29 23 24 19 12 7 6 5 5 5 4
35 34 34 31 30 33 38 39 40 36 32 25 26 28 28 35 47 52 54 62 58 62 66 62 58 47 40 43 44 40 35 29 28 25 16 9 6 6 5 4 5 4 4
32 31 34 39 42 43 42 38 33 26 24 27 30 38 47 57 53 55 60 65 70 62 63 50 41 42 47 43 39 36 34 29 24 15 8 7 6 5 4 4 4 4 3
47 48 48 46 44 38 32 26 24 27 33 43 48 57 53 49 51 58 58 57 60 54 45 42 45 47 43 47 42 31 21 18 10 8 8 6 5 5 4 4 3 3 3
44 40 36 31 28 26 26 29 40 50 53 57 54 50 52 54 56 56 52 58 48 46 47 48 46 49 48 44 35 24 14 7 7 7 6 5 5 4 4 3 3 3 3
28 28 28 27 28 32 48 47 56 59 54 46 54 59 53 50 48 51 49 45 47 50 51 52 55 49 41 33 21 10 8 7 5 4 4 4 4 4 4 4 3 3 3
27 29 33 42 51 58 62 66 68 61 61 59 53 52 53 54 53 46 49 52 52 57 61 52 45 40 31 18 9 7 7 5 4 4 4 3 4 4 3 3 3 3 3
45 57 63 64 63 78 69 58 62 56 47 46 51 55 58 50 50 53 56 58 64 60 50 44 38 25 15 8 7 6 5 4 5 4 4 4 4 4 3 3 3 3 3
71 70 78 81 71 66 53 47 44 46 53 56 56 53 52 54 59 66 66 66 58 48 41 30 18 9 7 7 6 5 4 4 4 4 4 4 4 3 3 3 3 3 4
89 79 77 61 59 53 45 49 64 63 58 51 50 56 57 65 70 71 67 57 49 44 31 16 8 7 7 5 5 5 4 4 4 4 4 4 3 3 3 3 3 4 5

GFSMW_250_rhum_027.txt.gz
RH
35 66 97 100 100 100 94 87 68 42 23 18 16 18 23 82 84 73 92 87 84 81 67 62 50 45 48 51 46 42 40 37 38 44 53 62 68 70 70 72 75 82 80
44 98 100 100 90 80 59 35 23 20 19 17 19 22 38 53 76 66 64 61 72 66 53 43 42 47 50 45 48 56 58 54 53 54 54 54 56 54 59 62 62 61 64
50 100 98 77 50 34 25 22 21 19 18 20 19 20 22 26 30 38 42 42 39 27 22 19 18 18 17 18 21 24 29 33 32 33 40 52 66 85 95 92 87 78 71
80 99 77 56 29 24 22 22 21 19 18 18 18 18 18 18 18 18 17 16 15 15 15 14 14 14 14 14 14 16 18 20 20 19 19 18 18 22 29 67 88 87 89
84 75 51 30 26 24 23 24 24 23 21 21 20 20 20 20 19 18 18 20 22 21 21 21 20 18 16 15 15 14 14 15 15 16 15 14 14 13 13 14 19 23 31
73 42 32 27 30 28 29 26 26 25 25 22 21 23 24 25 23 22 23 23 24 23 22 21 21 20 19 18 17 16 15 14 15 15 14 13 13 16 18 18 18 19 28
50 34 31 29 30 34 30 28 28 28 27 26 25 26 29 31 28 26 24 24 24 23 22 22 22 20 19 18 18 16 16 17 17 16 15 16 17 20 18 18 25 36 54
41 34 33 31 33 34 30 28 30 29 28 28 30 29 30 29 27 25 23 24 23 23 22 22 20 18 17 16 16 16 16 17 17 17 17 18 19 24 27 33 36 39 42
47 39 36 34 35 32 32 34 31 33 34 33 33 32 30 28 28 27 25 25 25 23 23 21 19 17 16 15 15 16 18 18 19 23 24 34 52 62 61 58 46 31 29
53 50 41 36 37 35 39 46 40 41 38 34 35 33 27 31 31 28 25 24 25 25 24 21 18 16 16 18 18 20 22 26 32 40 61 74 66 60 49 42 38 32 27
55 51 46 42 39 41 47 48 45 40 37 37 35 32 33 33 31 28 25 25 26 27 25 21 18 20 21 21 24 30 34 44 60 66 69 65 50 49 46 41 33 30 30
51 49 48 50 47 55 56 52 45 43 43 40 38 38 35 34 31 27 25 28 29 27 24 19 21 24 25 31 34 39 53 62 66 67 59 57 51 46 34 32 33 31 31
54 52 49 51 56 56 56 53 48 44 48 49 41 38 36 34 27 26 30 30 30 26 21 23 26 28 31 36 45 53 59 63 57 56 52 44 34 35 34 31 28 26 21
53 51 51 55 55 55 56 54 48 49 47 42 40 38 35 31 28 32 33 31 25 22 24 27 30 33 41 50 53 56 54 56 55 46 34 36 36 33 27 22 18 15 12
55 49 48 53 54 54 54 50 45 43 43 44 38 35 31 31 33 36 30 24 23 26 30 35 42 50 52 49 47 49 50 50 36 36 38 36 29 21 19 15 13 7 5
56 53 50 50 50 48 45 42 43 44 40 37 34 30 31 37 38 31 24 24 28 33 39 45 50 52 48 48 47 45 41 36 38 36 30 24 20 18 15 8 6 5 4
57 52 49 48 45 42 41 42 41 38 35 30 31 36 40 38 28 24 26 34 44 47 50 53 48 47 44 44 44 38 42 39 33 26 22 21 16 9 6 6 5 4 4
49 46 47 45 39 40 40 39 34 31 33 36 40 40 31 24 24 30 41 50 50 50 52 48 46 48 46 40 43 42 37 31 26 20 16 13 7 6 5 4 4 4 4
48 45 40 37 38 38 35 34 36 38 41 42 32 25 26 30 43 52 51 50 52 47 46 49 51 45 44 43 42 35 27 23 16 16 10 6 6 5 4 4 4 3 3
38 38 39 38 39 40 33 38 42 40 30 25 26 30 38 55 52 54 55 45 44 45 53 51 44 45 47 43 33 23 17 14 12 8 6 6 5 4 4 4 3 3 3
42 43 41 36 36 39 43 38 29 26 27 29 42 56 56 48 50 45 45 47 56 56 45 48 50 49 44 34 25 18 14 8 6 7 6 5 4 4 4 3 3 3 3
39 41 45 49 47 34 28 27 27 30 41 50 55 56 52 53 46 50 60 60 46 47 50 53 55 48 40 32 22 15 9 7 6 5 4 4 4 4 3 3 3 3 2
56 50 36 29 28 28 28 29 42 52 54 62 49 51 45 45 63 65 49 46 49 54 56 53 49 45 35 22 13 10 8 6 5 4 4 4 4 4 3 3 2 2 2
29 29 30 31 32 37 50 52 55 66 60 54 48 46 59 69 55 47 48 53 58 56 55 52 47 34 19 11 8 8 7 6 5 5 4 4 4 4 3 2 2 3 3
33 39 49 60 59 53 66 70 63 58 48 44 55 70 60 50 49 55 60 61 59 57 54 47 29 14 9 8 8 6 5 5 5 4 4 4 4 3 3 3 3 4 5
68 76 69 55 61 67 64 56 50 44 43 66 63 51 48 52 59 64 66 63 63 64 53 27 13 10 8 7 6 5 5 5 4 4 4 3 3 3 4 4 5 5 6

GFSMW_250_rhum_030.txt.gz
RH
26 24 32 40 53 100 100 99 97 100 100 100 100 100 70 61 24 18 22 31 53 86 67 68 68 62 46 38 36 30 26 26 24 25 36 53 56 52 49 52 50 46 48
32 26 24 24 35 56 99 99 100 100 100 99 84 62 27 19 18 23 28 28 30 35 45 46 40 33 20 15 15 15 14 14 14 14 16 20 21 21 23 26 28 30 38
32 27 29 30 33 56 71 100 96 86 70 42 24 21 20 22 24 23 22 21 19 19 18 17 16 17 17 17 18 18 19 19 17 17 16 16 16 17 18 17 17 17 18
33 24 41 31 50 87 97 83 70 42 26 24 22 22 20 20 20 21 21 19 18 18 19 19 20 20 19 18 18 19 20 20 18 16 15 15 15 15 18 22 23 23 23
40 26 51 56 89 100 83 49 34 26 24 25 25 23 20 22 24 24 23 20 21 23 24 22 22 20 18 18 19 18 16 15 14 14 14 14 14 12 12 13 20 23 24
46 26 54 71 99 94 60 38 27 25 24 27 26 26 24 26 28 27 25 27 27 25 23 24 22 20 19 18 19 18 16 14 14 13 13 13 13 13 12 12 14 14 17
48 29 52 84 97 73 48 35 29 29 29 31 29 27 31 31 31 30 31 30 26 25 25 23 22 21 20 19 19 18 17 17 14 13 12 12 12 13 14 14 16 19 20
46 25 74 100 80 59 37 31 33 32 32 32 33 33 33 33 32 34 33 31 28 28 26 25 24 21 20 18 18 19 18 16 14 13 14 15 16 17 17 18 19 22 23
47 28 97 88 56 39 34 30 31 34 36 35 32 31 29 33 37 35 32 28 28 29 29 24 22 20 19 20 21 18 16 16 16 18 18 19 24 27 26 27 27 26 28
43 49 97 69 47 36 35 34 32 37 40 36 38 37 36 38 37 34 28 28 30 32 28 26 21 20 22 24 21 18 17 18 20 21 27 32 33 37 36 34 36 35 26
43 67 85 54 42 39 36 38 40 42 43 41 42 42 42 39 35 31 30 34 35 34 28 22 21 25 28 24 20 19 22 23 28 36 38 40 36 36 37 37 32 26 23
45 88 80 54 46 41 42 45 46 46 49 48 49 50 46 40 36 34 37 38 37 30 25 22 28 31 26 21 22 25 33 40 38 38 38 37 39 40 32 28 29 31 30
54 91 78 58 53 52 53 53 52 57 58 57 57 50 44 39 36 39 41 38 30 26 24 32 32 25 22 24 28 37 40 38 39 37 40 41 34 32 33 33 30 27 23
70 90 75 59 57 55 56 59 60 60 60 58 53 48 44 41 43 40 35 30 28 28 33 32 24 23 26 33 40 42 40 37 39 42 38 34 34 34 30 26 22 17 13
83 83 70 55 54 55 57 58 58 56 57 55 52 47 45 42 39 34 32 29 30 34 29 24 23 32 40 43 41 35 38 43 40 42 39 39 35 26 21 18 13 7 5
85 78 59 55 56 56 57 56 54 52 53 52 49 46 42 39 35 32 28 32 34 26 23 25 42 44 41 34 36 43 41 44 42 45 42 32 26 20 16 9 6 5 4
90 78 60 57 57 58 58 57 54 52 50 49 46 42 38 36 31 29 34 32 25 23 37 44 42 38 35 45 46 43 45 51 50 35 30 25 17 10 6 6 5 4 3
91 86 76 71 66 65 64 61 57 52 49 47 40 37 34 30 33 35 30 25 27 43 42 38 35 42 51 43 40 50 59 46 39 33 24 12 7 6 5 4 4 3 3
90 84 80 77 76 74 72 66 58 51 47 40 36 32 30 39 33 27 24 35 44 39 35 35 50 47 42 45 58 54 48 42 34 23 11 6 6 5 4 4 4 4 3
84 78 77 75 69 62 57 51 45 39 36 33 32 40 40 30 25 26 42 48 44 35 46 54 45 44 53 59 51 46 40 33 19 12 8 7 6 5 4 4 4 3 3
79 78 73 64 58 52 44 40 36 33 36 45 45 33 26 24 36 44 52 40 37 54 55 46 46 58 55 52 47 41 29 14 10 9 7 6 5 4 4 4 4 3 3
67 64 62 58 52 43 37 38 44 47 46 34 27 25 30 39 54 46 38 41 56 50 46 53 66 61 60 52 46 33 15 10 9 8 6 5 5 5 4 4 3 3 2
62 57 49 45 53 63 56 47 40 32 27 25 31 36 50 52 40 40 52 58 48 47 61 65 62 61 55 51 35 16 12 10 8 6 5 5 5 4 4 3 3 3 4
54 67 70 64 53 41 33 29 26 27 35 37 44 54 43 38 41 59 53 48 53 64 59 58 59 62 57 31 14 12 10 9 7 5 6 5 5 4 3 3 4 4 4
52 45 39 34 30 28 28 32 35 39 50 50 43 37 38 58 56 47 50 61 62 57 59 58 62 54 27 14 11 10 9 7 6 6 5 5 4 4 4 4 5 5 6
31 30 30 32 36 36 43 50 52 44 38 36 41 56 63 51 48 60 64 60 59 60 57 61 48 21 13 11 10 9 6 6 6 5 5 4 4 4 5 5 6 8 9

GFSMW_250_rhum_033.txt.gz
RH
19 18 17 22 26 27 32 94 98 88 80 74 94 100 100 100 100 100 100 99 83 47 17 21 24 24 27 30 27 22 18 20 22 24 21 20 20 18 18 18 18 17 16
21 20 19 20 23 25 25 61 84 100 100 100 100 100 100 100 100 100 93 80 27 24 24 22 23 20 20 20 22 22 22 20 20 19 20 21 18 17 17 17 16 15 16
29 25 25 25 25 26 26 31 44 72 86 99 100 100 100 100 98 74 34 25 26 25 21 20 20 21 20 23 22 24 22 20 19 20 20 21 20 22 25 22 18 16 15
34 30 36 32 31 25 26 24 24 50 89 100 100 100 91 65 45 29 29 27 24 22 22 22 24 23 24 25 23 22 22 23 21 20 18 19 19 20 23 24 22 22 22
40 39 36 30 39 31 28 23 26 72 92 96 81 58 37 29 28 27 26 24 24 25 25 25 26 29 26 22 22 21 23 23 21 19 18 18 16 14 13 15 16 18 19
44 42 41 32 54 36 27 24 52 89 96 66 47 31 31 29 27 28 29 31 28 28 27 27 29 29 24 23 23 22 20 20 20 19 19 18 18 18 15 12 10 12 18
41 46 51 36 55 32 24 28 79 100 76 52 34 30 28 29 30 31 36 34 32 31 29 30 30 29 25 24 24 23 24 24 21 19 18 17 16 14 12 11 13 13 16
44 50 48 34 52 36 31 42 78 95 67 46 35 30 30 35 34 33 36 32 31 31 30 35 33 27 26 28 26 28 28 22 19 18 17 17 15 14 13 13 13 17 23
48 56 54 41 51 49 38 62 85 91 63 48 38 34 35 35 32 33 33 36 35 37 37 35 31 30 31 29 31 31 23 21 21 21 18 16 15 16 18 20 20 23 29
48 60 44 41 65 64 54 64 86 76 60 45 35 37 37 37 38 37 37 41 42 41 39 33 34 32 31 33 31 25 22 24 23 18 17 17 21 26 28 30 34 33 28
54 74 64 45 82 70 65 91 84 64 52 41 35 40 38 39 41 40 42 48 43 42 40 38 34 32 33 32 27 23 25 24 20 18 20 28 30 31 37 36 33 29 25
52 61 51 42 67 77 84 86 72 55 41 39 38 40 46 49 48 52 49 45 45 46 41 38 34 35 34 29 25 26 26 20 20 27 30 33 39 38 34 32 32 31 26
55 66 58 52 71 84 82 78 65 51 41 41 43 52 57 56 56 56 52 50 50 45 40 38 37 33 30 27 28 26 21 24 29 28 36 40 33 34 40 42 31 24 23
56 63 50 59 74 85 81 71 60 49 45 48 57 62 60 59 60 58 55 53 48 42 41 36 32 30 28 29 26 21 24 31 29 40 36 33 42 46 36 28 26 21 14
66 65 56 73 78 76 78 72 56 55 55 61 62 60 60 59 57 54 50 49 46 44 38 33 30 29 32 25 22 31 34 34 43 34 40 53 46 35 30 24 17 10 6
70 56 60 72 82 87 83 80 68 63 62 61 60 60 58 57 56 54 51 46 44 38 36 31 33 32 23 26 34 32 39 43 35 45 57 47 40 32 25 17 9 6 4
53 59 66 80 88 96 90 80 71 65 60 58 58 58 60 61 60 56 50 44 41 36 31 37 29 24 30 35 31 42 38 39 53 54 47 42 31 23 13 8 7 6 4
72 82 89 90 91 87 86 79 66 59 58 59 63 66 70 71 66 52 43 39 33 36 37 26 25 31 33 35 44 36 44 61 59 52 42 31 20 10 8 7 6 5 4
98 100 95 96 96 92 87 79 71 69 73 77 77 77 69 52 45 41 34 34 40 30 25 27 34 30 38 41 36 49 62 63 57 46 32 16 9 9 8 6 5 5 4
93 97 93 90 93 96 92 88 84 82 78 77 70 57 52 46 37 36 42 33 26 26 31 37 32 42 37 40 54 60 59 55 46 31 15 9 9 8 6 5 5 5 4
98 99 96 95 94 89 84 78 76 76 77 70 61 51 44 44 43 34 27 26 34 38 33 37 43 39 46 53 54 56 53 41 25 14 9 9 8 6 5 5 5 4 3
93 89 87 86 82 78 78 78 83 76 64 54 49 48 45 35 29 27 35 38 35 34 44 45 48 56 55 52 56 55 46 27 12 9 9 8 6 6 6 5 4 4 3
87 82 79 78 81 80 74 69 64 55 54 54 45 37 31 28 36 42 34 35 47 45 44 57 61 53 55 59 56 57 32 13 11 10 8 6 6 6 5 4 4 4 4
85 80 75 72 71 66 60 62 62 58 44 37 33 32 38 43 36 35 53 51 46 56 63 57 50 53 58 60 58 30 13 10 10 9 6 6 6 5 4 4 4 5 6
84 80 78 77 78 73 59 43 36 34 35 40 48 49 40 36 54 58 46 52 61 62 53 47 50 57 59 51 26 13 10 10 8 6 6 6 5 4 4 4 6 7 8
88 90 79 62 48 40 34 36 47 54 55 54 41 33 47 68 54 50 56 60 58 48 44 46 52 56 45 18 12 11 9 8 6 6 7 6 5 4 5 6 7 9 10

GFSMW_250_rhum_036.txt.gz
RH
29 25 26 28 25 22 22 21 25 24 23 29 41 57 53 59 55 80 92 100 100 100 80 96 99 96 48 29 23 22 21 21 24 23 21 24 24 24 24 24 24 22 22
28 27 28 29 27 29 26 24 23 27 24 22 25 77 81 96 95 100 100 100 100 100 100 100 82 44 26 22 22 22 22 22 24 23 24 24 22 23 26 26 24 22 20
27 33 29 31 29 30 32 27 27 26 27 25 22 67 100 100 100 100 100 100 100 100 94 61 30 26 23 22 25 26 25 25 26 25 24 23 24 26 33 30 25 21 20
30 34 36 32 35 30 33 32 32 29 30 26 25 61 80 100 100 100 100 100 96 77 50 40 27 24 24 27 29 28 27 29 28 25 25 24 25 28 29 32 26 23 26
41 37 43 38 34 33 33 32 35 31 32 26 25 43 81 99 100 98 94 64 52 38 29 27 27 28 29 31 30 29 29 28 29 29 27 26 24 24 22 21 21 23 23
55 38 43 42 35 39 42 37 30 30 34 28 34 45 68 82 91 80 59 45 35 30 29 31 34 36 38 36 33 30 28 32 33 30 27 30 29 26 25 22 19 20 21
58 50 51 49 42 39 50 46 31 30 33 31 37 77 84 96 64 50 35 34 32 32 33 37 39 41 36 33 29 30 34 37 33 30 31 27 24 26 25 20 19 20 18
61 58 57 56 48 43 50 46 33 37 36 34 54 88 100 68 55 38 37 36 32 36 38 37 34 33 34 35 34 35 37 35 34 34 30 28 26 26 22 20 19 17 20
73 59 50 56 51 49 52 52 38 42 37 38 80 94 99 69 54 42 37 35 36 39 39 39 38 37 39 42 40 39 40 37 36 32 28 26 25 23 23 20 17 16 19
79 63 52 58 51 51 49 63 50 44 38 46 80 86 98 76 59 47 42 46 41 38 39 39 40 43 47 46 44 40 40 38 33 28 26 25 24 26 20 18 22 27 31
78 68 62 64 56 54 54 74 61 46 45 56 81 85 95 78 63 54 43 42 40 39 45 49 50 51 51 48 47 46 40 36 31 27 26 26 27 20 22 27 32 36 27
83 74 65 64 57 52 54 77 60 48 48 64 84 90 90 70 62 52 44 41 41 51 57 57 56 55 52 48 46 41 36 33 30 28 29 27 20 26 30 37 34 27 26
84 88 66 60 55 53 61 71 59 55 56 68 89 100 77 62 54 47 47 46 50 61 60 57 58 56 53 49 42 37 33 32 29 32 24 21 28 34 36 30 31 29 23
80 89 67 53 55 54 59 84 70 55 51 81 100 97 72 58 49 47 48 52 62 62 59 59 58 57 53 45 38 33 32 30 32 22 24 29 34 31 35 37 30 22 18
89 85 49 46 50 55 62 83 71 56 79 100 100 89 68 58 52 52 55 63 63 60 61 60 63 61 48 38 36 31 33 27 23 28 29 34 33 41 38 29 22 18 18
70 52 39 48 50 63 60 73 76 93 100 100 96 80 65 58 59 61 64 62 61 61 64 69 64 46 42 35 32 32 25 26 28 32 33 38 43 42 35 26 21 18 8
56 41 42 45 49 59 68 85 100 100 100 100 96 86 77 73 71 67 64 62 60 72 73 60 50 43 35 35 27 25 29 28 33 34 43 45 44 36 24 22 17 10 6
42 41 45 52 74 75 92 100 100 100 100 100 98 91 86 78 72 65 61 69 76 72 59 51 42 39 31 26 28 28 33 32 40 44 45 45 40 28 19 13 10 8 7
46 51 60 86 83 95 98 100 100 100 100 100 94 89 83 78 76 78 80 73 66 58 49 46 36 28 25 29 33 35 35 44 46 49 51 42 28 17 11 9 7 6 5
58 62 78 93 100 97 100 100 100 100 99 100 97 93 90 88 81 71 70 67 53 52 45 32 25 28 30 39 35 38 44 46 50 50 40 25 14 11 9 7 6 5 6
72 90 99 98 97 100 100 100 100 100 98 100 99 93 83 72 72 74 59 55 55 34 28 30 30 37 41 36 42 44 45 45 46 39 23 14 10 9 7 6 5 6 5
99 100 100 100 100 100 100 100 100 100 98 93 81 78 79 72 62 61 54 37 31 31 33 33 49 40 36 42 45 46 45 46 39 24 14 9 9 7 5 6 6 5 4
100 100 100 100 100 100 100 100 96 87 79 81 77 70 65 70 56 38 34 35 38 34 38 54 39 42 48 51 49 46 51 44 27 16 10 8 7 5 6 6 5 4 4
100 100 100 100 100 97 93 85 84 82 76 71 74 79 54 41 38 40 42 34 37 57 51 41 44 51 52 50 47 53 47 30 18 11 9 6 5 6 6 5 4 5 6
100 100 100 99 94 94 93 86 84 83 85 79 54 44 44 48 46 38 35 51 59 48 44 46 53 53 47 45 48 45 25 12 10 8 6 5 6 6 6 5 6 6 6
99 99 98 98 96 91 89 89 85 70 50 44 54 58 51 44 36 40 61 57 48 42 47 51 50 46 42 42 44 22 11 9 8 5 5 6 6 6 5 5 6 6 9

GFSMW_250_rhum_039.txt.gz
RH
31 25 23 22 26 28 26 25 22 17 18 19 19 20 25 25 37 25 30 35 60 66 89 99 86 100 100 100 100 100 88 62 31 20 18 20 22 24 25 28 27 25 25
36 30 26 25 25 29 28 27 26 22 20 19 18 20 23 28 28 24 21 81 87 97 99 100 100 100 100 100 100 83 43 29 22 22 24 25 25 28 29 30 28 27 27
42 37 29 29 28 28 33 31 28 26 24 23 21 20 20 30 29 24 29 98 99 99 100 100 100 100 100 95 64 49 29 22 24 26 27 30 33 32 34 32 32 31 30
46 41 33 31 36 28 29 36 33 32 29 29 25 22 21 31 33 27 36 91 100 100 100 100 100 98 85 62 43 27 26 29 28 29 32 34 35 36 35 46 45 41 39
53 49 39 32 39 29 28 37 41 36 34 31 28 25 23 31 32 30 48 73 88 100 98 100 85 64 50 30 29 30 33 35 36 39 38 36 34 33 36 39 42 42 39
59 50 48 35 44 34 27 38 46 40 38 36 31 26 27 32 32 30 62 67 84 87 85 79 63 47 31 29 32 35 39 40 40 34 36 40 39 41 35 35 38 39 39
60 52 59 47 55 43 30 36 50 43 43 45 37 28 28 31 31 39 62 72 76 88 66 52 36 32 34 39 44 42 39 39 40 38 43 48 46 44 44 39 33 27 27
56 59 59 58 65 50 34 37 54 49 47 47 43 37 35 33 33 51 67 80 90 65 51 40 42 42 38 39 43 46 46 43 48 51 49 46 44 40 35 31 27 26 28
54 58 62 62 70 62 41 41 58 57 53 52 51 44 41 41 43 62 79 86 82 63 56 47 45 47 46 45 43 42 45 54 55 51 50 50 44 36 31 26 26 26 22
64 59 72 69 73 73 46 49 63 63 60 58 54 50 47 47 52 78 82 91 92 70 62 56 49 48 49 48 44 46 57 57 53 54 55 48 42 34 28 28 26 24 22
66 78 76 69 58 69 49 47 67 65 62 58 52 53 54 53 57 79 94 100 100 93 77 66 61 53 49 46 47 54 59 57 57 57 55 46 33 30 29 26 24 19 17
58 72 63 78 62 72 56 43 60 64 64 64 61 63 60 59 62 84 100 100 100 96 80 70 61 51 51 49 50 59 60 58 58 58 45 35 35 29 28 23 18 23 28
49 65 62 72 76 74 68 50 58 68 63 62 69 66 60 59 73 86 94 100 100 86 71 62 51 50 51 54 60 63 59 59 59 49 42 37 31 28 21 21 28 35 37
51 68 68 80 74 77 75 54 58 67 65 74 83 70 64 66 79 84 97 100 99 82 66 59 54 56 60 64 65 61 60 61 52 44 36 32 24 21 24 32 34 38 34
50 70 75 99 86 77 79 58 53 66 63 77 79 74 73 77 88 92 98 100 95 79 66 61 62 66 70 69 65 62 64 53 44 39 31 23 22 28 34 36 38 30 24
52 58 72 95 90 79 79 56 49 60 60 88 89 80 83 98 95 95 92 91 89 84 82 81 79 80 73 68 68 58 51 42 38 30 24 24 34 33 42 39 33 27 19
70 84 84 91 92 88 76 47 48 58 76 97 87 88 100 100 95 91 96 96 100 97 92 84 80 77 72 63 55 49 41 32 29 26 27 37 37 44 40 36 29 23 19
96 86 88 90 88 85 67 44 51 60 72 99 100 100 100 99 98 99 99 100 98 87 83 80 73 70 60 52 45 38 30 29 26 35 36 42 44 39 34 26 23 21 10
97 87 83 79 77 75 53 45 55 65 90 100 100 99 100 100 100 100 98 91 90 84 78 79 68 57 50 41 35 32 31 29 43 40 47 43 42 38 26 22 19 9 7
97 89 83 73 61 47 47 56 67 92 100 100 100 100 100 100 100 93 91 87 83 85 80 61 54 47 39 34 35 28 43 43 43 48 44 44 36 26 21 16 8 7 5
99 83 64 52 48 52 60 70 100 100 100 100 100 100 100 97 93 91 91 91 81 70 61 56 42 37 38 33 32 48 39 42 45 49 49 36 26 19 12 8 7 5 5
88 72 62 59 61 66 89 100 100 100 100 100 100 99 94 94 94 94 85 75 66 58 52 39 40 39 31 40 48 39 41 43 50 48 35 27 19 11 8 6 4 5 6
69 68 69 72 90 100 100 100 100 100 100 100 100 99 98 96 90 78 72 63 58 43 36 45 37 34 52 50 40 41 47 51 48 41 29 19 10 8 6 4 6 6 5
75 79 96 100 100 100 100 100 100 100 100 100 99 97 95 84 78 70 64 49 37 43 42 34 44 64 49 41 44 54 56 55 48 31 19 10 8 6 4 6 6 5 5
88 100 100 100 100 100 100 100 99 100 100 99 96 90 85 78 69 54 40 43 43 38 38 62 66 48 49 48 53 53 50 41 28 14 9 7 5 4 6 6 5 5 6
98 100 100 100 100 100 100 99 100 98 95 94 88 78 69 52 45 48 45 40 48 62 69 57 48 50 44 49 47 46 36 20 11 9 7 4 5 6 6 5 5 6 6

GFSMW_250_rhum_042.txt.gz
RH
41 42 38 32 29 31 30 24 21 21 21 21 19 18 17 16 16 19 25 30 24 23 19 22 28 53 64 80 87 93 100 100 100 100 100 100 86 42 24 22 23 26 27
50 39 46 40 34 35 40 28 21 20 20 22 22 21 19 17 18 25 30 24 19 22 24 21 32 86 92 93 100 100 100 100 100 100 99 71 44 26 24 26 29 31 32
51 45 46 48 40 34 41 38 24 22 19 21 24 24 24 20 19 20 22 22 23 25 23 23 29 82 83 88 96 100 100 100 100 82 67 42 26 27 30 31 34 38 34
41 34 44 41 48 38 35 42 27 22 20 19 24 26 25 24 25 23 26 24 25 27 27 28 35 68 82 97 98 92 100 87 69 47 30 30 33 39 44 49 43 37 37
53 39 42 52 51 45 39 43 31 27 22 20 24 29 27 27 26 30 31 27 27 28 29 36 53 70 82 88 94 93 77 59 43 29 32 38 43 42 43 43 46 46 56
51 57 62 57 48 51 43 46 39 32 28 25 26 30 28 30 32 40 34 29 32 30 31 34 49 58 76 82 78 74 49 39 33 34 37 42 45 47 49 43 53 59 60
38 45 53 53 53 57 56 48 43 34 32 28 32 36 32 33 66 61 37 39 38 36 34 30 43 55 77 75 68 51 40 41 41 40 43 47 48 44 42 53 60 57 57
41 45 50 58 56 57 58 54 45 37 36 32 34 46 38 34 38 48 49 45 49 44 39 38 54 70 75 75 58 50 46 46 50 55 54 53 47 44 47 57 58 59 56
40 43 61 63 82 68 62 62 52 39 39 35 38 54 46 41 44 48 52 49 47 47 45 55 67 72 72 74 66 61 57 55 51 52 52 48 46 47 51 58 60 53 52
25 30 49 61 80 84 68 68 56 47 47 41 43 64 55 49 53 53 58 55 52 52 52 70 76 77 83 87 77 70 71 70 68 64 52 48 48 53 58 61 56 53 43
19 24 34 54 93 76 69 74 65 51 46 49 48 68 66 56 59 61 65 61 56 54 57 73 78 90 99 99 100 99 90 79 69 55 50 51 57 61 62 58 54 48 37
15 16 30 54 97 74 68 79 77 63 59 57 54 74 72 64 65 73 76 67 64 62 59 64 85 98 100 100 100 91 79 69 61 57 59 62 69 67 61 54 46 40 28
16 14 26 66 84 80 74 77 83 71 77 70 54 75 71 71 73 75 83 77 76 70 62 71 90 93 98 99 94 89 78 69 66 71 74 72 69 61 52 42 33 26 22
20 20 30 78 86 85 78 78 75 77 97 81 63 66 73 74 76 77 84 86 81 79 80 87 91 91 95 95 89 80 79 78 80 74 74 63 51 46 40 30 25 25 33
27 25 47 90 99 81 88 83 72 85 100 89 72 59 73 71 75 80 87 90 94 92 92 94 91 92 91 82 74 75 76 77 74 66 54 48 44 37 29 25 29 42 32
38 43 78 98 78 79 83 83 76 84 92 88 75 58 66 68 76 84 91 97 99 100 100 99 92 88 76 73 68 70 71 69 61 54 50 43 38 29 28 37 46 32 27
60 69 83 81 76 82 85 88 89 96 99 94 83 64 61 63 68 81 94 100 100 100 100 99 90 74 71 64 65 66 67 61 57 52 47 36 29 30 48 43 34 31 23
88 82 90 91 97 100 100 100 100 100 100 98 81 58 57 63 68 86 98 100 100 100 99 88 77 74 68 64 65 66 64 63 54 46 34 30 34 53 37 38 34 26 24
100 100 100 100 99 100 100 98 99 95 92 89 74 52 59 65 76 99 100 100 100 94 93 86 84 66 68 69 69 70 64 57 43 36 31 47 51 43 43 32 26 26 26
100 100 100 100 100 93 100 100 99 89 89 84 63 56 63 71 90 100 100 96 99 100 94 79 70 72 76 80 75 64 53 40 38 35 54 47 49 46 31 26 26 27 12
100 100 99 99 97 93 92 91 93 90 81 58 58 66 74 92 100 100 100 100 98 87 74 75 78 86 82 73 62 48 41 38 46 55 47 53 46 31 26 26 21 10 7
90 94 97 94 92 90 88 75 62 57 61 65 75 95 100 100 100 100 99 88 85 84 83 89 87 76 64 52 43 41 46 57 48 50 52 41 30 27 26 18 9 7 4
100 96 92 83 82 81 80 73 73 74 86 99 100 100 100 100 98 94 96 90 88 87 90 84 71 57 45 42 44 67 60 48 53 52 44 32 28 26 13 8 6 4 4
100 100 98 90 88 87 88 93 100 100 100 100 100 100 99 99 100 93 90 88 89 87 71 59 49 47 40 56 71 62 58 59 58 45 34 29 19 10 9 5 4 5 6
100 100 100 100 100 100 100 100 100 100 100 100 100 100 100 97 95 94 90 85 70 61 53 52 42 44 68 75 71 65 59 52 40 33 25 13 9 8 4 4 5 6 5
100 100 100 100 100 100 100 100 100 100 100 100 100 100 100 98 89 78 66 60 56 52 45 47 68 82 76 67 58 52 44 36 30 19 11 9 6 4 4 6 5 4 5

GFSMW_250_rhum_045.txt.gz
RH
79 76 64 60 49 31 28 29 29 27 27 24 21 17 17 20 26 33 28 16 15 15 18 20 21 19 17 18 22 19 20 60 78 85 93 89 92 100 100 100 100 100 79
99 100 100 85 72 40 29 29 29 29 24 23 23 23 20 25 21 24 33 34 20 20 18 21 20 18 18 18 19 20 19 34 76 75 80 94 100 97 100 98 86 67 48
77 77 70 84 90 79 53 34 30 32 32 28 25 22 24 22 22 24 24 26 30 53 46 40 28 22 18 18 20 21 19 24 55 67 88 94 92 98 85 68 50 33 31
68 65 65 64 58 75 80 56 42 33 37 33 30 26 26 24 23 23 26 29 36 55 66 59 30 23 19 18 21 20 20 26 44 69 90 88 88 69 55 44 34 32 32
48 56 65 65 63 60 66 67 50 42 53 37 36 31 29 29 25 23 26 32 36 32 42 43 27 25 26 26 21 19 21 24 44 80 95 80 64 54 41 36 34 33 37
56 51 46 52 53 52 50 54 59 57 56 58 41 38 32 31 28 26 29 38 37 47 55 42 34 33 30 33 27 24 26 29 54 81 76 65 52 43 43 42 43 45 51
59 52 47 55 69 60 54 55 68 71 61 66 51 44 40 34 31 28 35 44 44 58 59 50 44 45 40 37 35 30 32 46 63 78 73 64 52 49 50 50 50 50 51
40 41 46 46 46 50 54 55 55 73 86 73 55 54 49 40 39 32 41 45 54 63 72 66 65 52 45 43 42 44 51 59 70 77 64 68 65 63 62 64 72 74 70
35 41 42 42 40 43 42 49 61 66 75 78 61 66 59 43 42 37 43 55 54 72 83 87 88 86 62 60 64 63 69 77 73 82 82 79 84 84 85 86 80 69 61
11 16 28 34 43 40 44 51 58 62 73 85 78 78 66 53 48 40 40 52 52 54 75 90 93 91 82 78 75 70 78 84 86 85 81 88 88 86 86 81 74 69 59
10 12 15 23 31 30 39 48 58 60 88 100 100 89 76 61 56 46 52 58 62 52 53 60 70 80 78 82 75 71 69 88 86 84 92 89 87 88 82 72 66 56 57
6 8 13 16 25 29 32 41 56 70 84 100 100 89 88 70 66 53 48 68 68 60 57 60 72 81 75 80 75 76 79 79 85 90 84 82 84 78 66 55 53 55 47
3 4 7 12 20 22 31 37 61 81 84 100 94 90 96 77 74 64 52 80 74 66 65 66 73 84 81 88 94 91 86 90 88 80 76 74 68 58 50 48 49 45 41
3 3 4 13 12 21 34 37 61 85 96 100 84 92 93 88 90 70 55 74 82 77 70 73 77 86 87 95 98 99 95 92 81 76 70 65 54 47 47 46 41 39 37
2 3 4 8 18 34 38 44 76 95 100 97 81 97 90 96 88 77 60 64 83 85 80 77 79 82 92 98 100 97 94 84 81 74 63 52 48 49 46 41 40 36 35
4 6 11 21 30 38 46 82 100 100 100 86 96 98 100 90 95 88 80 75 71 80 82 80 79 84 96 100 98 90 89 82 76 64 59 53 53 47 46 39 40 28 28
13 18 30 38 40 55 91 100 100 100 89 97 100 95 86 91 99 92 86 78 65 70 75 81 82 85 94 100 99 94 83 76 70 65 60 54 50 46 40 38 28 31 38
44 41 42 67 97 100 100 100 100 100 100 100 99 92 97 97 99 98 93 79 66 66 71 74 76 83 98 100 97 86 80 82 73 67 58 54 47 46 30 29 38 42 31
68 80 99 100 100 100 100 100 100 100 100 100 100 100 100 100 94 93 88 80 65 66 68 71 79 96 100 98 88 91 89 73 73 74 65 51 40 30 31 47 46 27 22
100 100 100 100 100 100 100 100 100 99 100 100 100 96 90 97 93 96 92 66 65 68 73 82 98 99 95 98 97 80 80 82 69 65 59 38 29 34 51 42 24 24 28
100 100 100 100 100 100 99 100 98 99 100 99 91 90 87 91 97 74 70 74 83 90 98 100 100 100 95 87 90 91 80 73 67 46 35 34 46 51 38 24 26 28 25
100 100 100 99 99 99 97 98 97 96 90 90 94 93 83 77 83 92 99 100 100 100 100 99 93 95 98 99 92 83 73 51 39 36 45 58 51 35 26 30 30 21 9
100 95 96 100 100 98 99 100 98 90 81 78 84 94 99 100 100 100 100 100 100 100 100 100 100 98 90 83 74 50 41 40 49 64 60 49 42 34 33 28 14 8 6
100 84 97 97 94 86 88 86 99 100 100 100 100 100 100 100 100 100 100 100 100 100 100 100 94 88 72 50 44 43 54 70 70 62 58 46 37 33 23 10 8 5 4
100 100 100 100 100 100 100 100 100 100 100 100 100 100 100 100 100 100 100 100 100 97 91 84 68 51 47 50 71 83 80 73 61 57 44 35 27 14 9 7 4 4 6
100 100 100 100 100 100 100 100 100 100 100 100 100 100 100 100 100 100 100 94 90 81 64 51 50 64 82 87 84 77 63 55 48 39 30 18 10 9 6 4 4 6 4

GFSMW_250_rhum_048.txt.gz
RH
58 61 62 72 64 55 47 44 36 41 32 28 27 28 23 26 38 29 21 20 22 27 27 27 34 25 18 17 17 18 17 17 17 18 16 20 20 19 52 62 77 85 91
65 54 59 61 66 70 82 95 94 72 63 34 30 25 30 35 27 26 26 25 23 22 26 32 34 40 40 26 18 16 17 17 18 18 18 18 20 19 26 53 67 78 87
65 64 54 52 56 72 80 86 91 84 76 55 36 34 34 40 30 28 28 28 28 23 24 37 47 39 46 40 33 25 21 21 22 20 19 17 22 23 32 41 52 64 65
72 69 69 67 59 56 60 71 81 79 61 74 50 41 35 41 41 47 54 59 44 30 26 34 44 37 31 35 32 34 45 46 36 21 20 19 21 22 33 38 42 60 60
71 74 73 80 79 61 57 59 65 73 66 65 58 56 44 53 63 58 46 37 35 34 30 26 29 33 35 38 39 51 53 48 29 25 27 25 23 22 22 38 46 60 60
80 83 83 70 58 55 68 77 62 72 70 62 62 62 65 56 60 45 35 35 36 37 35 29 29 38 43 44 52 56 67 54 34 35 39 39 39 25 23 27 51 71 61
76 71 67 67 56 52 47 50 64 56 58 61 59 59 62 59 55 58 48 39 40 38 35 33 34 41 44 50 53 56 66 66 50 45 51 59 48 45 32 39 63 85 77
59 48 40 38 44 43 48 52 46 46 58 68 70 61 71 65 74 71 58 54 43 43 39 39 34 45 52 57 71 67 70 72 64 64 68 65 64 60 58 61 55 64 69
34 38 40 41 41 45 46 44 44 52 58 62 58 64 77 72 68 82 73 68 52 50 44 43 39 47 61 80 88 90 89 80 85 88 85 75 71 73 62 66 66 59 58
34 34 34 32 34 34 39 40 36 38 39 41 46 56 60 62 59 91 90 88 63 57 56 52 44 61 86 88 89 100 100 100 100 100 98 91 87 79 69 62 62 59 49
28 25 20 20 21 19 20 27 40 37 42 42 50 58 66 66 75 95 100 98 75 68 58 53 48 50 76 74 68 79 100 100 100 100 98 93 93 85 79 68 66 60 52
13 11 12 13 13 18 21 21 27 36 38 43 60 64 69 69 81 96 100 98 83 76 65 65 52 58 78 81 77 77 80 81 81 88 94 92 86 84 78 73 69 64 54
8 8 7 6 8 12 15 21 20 49 37 45 48 58 66 71 79 100 100 97 90 84 73 70 64 72 85 89 87 84 82 83 81 85 94 88 82 85 77 72 67 58 47
5 5 5 4 5 5 9 17 25 49 36 41 48 56 68 76 100 100 100 98 91 89 89 87 66 69 86 92 92 87 83 84 82 79 81 82 81 80 74 68 56 54 42
3 3 3 5 6 9 14 18 26 34 30 42 51 64 78 98 100 100 100 98 98 100 97 96 80 79 73 83 85 84 82 78 75 74 72 75 78 78 71 65 58 46 42
4 4 4 6 6 7 13 27 30 30 40 52 64 90 100 100 100 100 98 100 99 100 99 100 100 85 80 74 78 76 72 70 70 74 76 75 75 79 66 55 51 49 46
15 9 7 12 16 30 27 29 40 55 62 73 95 100 100 100 100 100 98 96 100 100 98 98 93 91 87 70 68 68 68 69 72 70 74 81 75 66 64 61 53 54 52
49 40 35 38 50 56 62 68 68 75 95 100 100 100 100 100 100 100 100 100 100 100 95 96 89 86 80 68 68 68 73 74 76 80 82 75 74 71 57 60 65 47 34
96 88 86 84 88 86 80 97 100 100 100 100 100 100 100 100 100 100 100 100 91 95 92 87 86 83 79 90 88 84 84 88 86 79 76 68 61 68 61 56 40 32 35
100 100 100 100 100 100 100 100 100 100 100 100 100 100 100 100 100 97 90 94 96 92 88 84 87 100 100 100 100 95 87 83 77 75 71 70 70 57 37 34 39 40 35
95 100 100 100 100 95 98 100 100 100 100 100 100 100 100 70 71 91 92 94 87 81 91 100 100 100 100 96 87 82 75 70 74 81 79 58 40 39 45 49 40 31 29
100 100 100 100 100 100 100 100 100 98 100 100 100 100 100 100 99 99 91 88 98 100 100 100 100 100 96 92 84 79 84 88 83 58 45 45 54 55 51 40 31 26 22
69 76 93 100 100 100 100 100 100 100 100 100 100 100 100 96 93 100 100 100 100 100 100 100 100 94 86 80 87 92 78 55 48 51 61 58 56 53 37 26 24 16 9
100 92 91 97 90 86 90 95 97 95 93 90 88 94 100 100 100 100 100 100 100 100 100 98 89 81 84 84 68 55 50 56 65 65 60 56 49 36 27 18 11 9 6
100 100 100 88 90 94 93 88 88 94 99 99 100 100 100 100 100 100 100 100 100 99 92 85 82 79 66 56 57 67 74 69 64 60 55 46 32 19 13 9 7 4 4
100 100 100 96 100 100 100 100 100 100 100 100 100 100 100 100 100 100 100 98 92 87 86 77 63 60 72 84 80 72 65 56 52 48 36 21 15 11 8 6 4 4 6

GFSMW_250_rhum_051.txt.gz
RH
76 69 67 58 56 50 58 62 54 51 49 48 43 42 36 32 34 57 44 36 32 39 39 40 34 24 20 19 24 30 28 29 30 22 20 19 18 19 19 19 21 21 22
93 100 92 67 65 76 83 68 60 60 62 60 54 66 75 56 51 50 59 74 55 32 30 28 27 26 25 23 23 24 29 35 39 41 40 31 23 21 21 22 27 25 24
85 90 80 74 88 84 83 84 70 60 59 49 52 59 74 79 80 64 72 66 49 44 64 53 42 36 31 29 26 23 23 31 40 39 46 49 43 37 29 30 31 29 26
98 100 93 79 74 82 74 70 75 67 68 63 60 52 54 68 78 76 63 64 75 56 94 71 44 51 50 40 29 26 24 26 36 35 29 31 37 43 67 72 45 36 31
99 93 81 67 63 73 71 68 71 77 77 77 73 66 49 56 68 72 66 75 85 75 64 59 42 39 36 34 33 32 30 28 28 28 31 33 37 46 70 84 42 46 47
83 74 66 64 73 77 73 68 71 74 70 68 70 62 54 46 61 66 72 69 69 68 56 45 45 45 40 40 35 33 31 29 31 36 42 52 49 55 79 87 60 49 51
72 71 69 64 64 64 64 63 61 62 60 54 55 54 44 39 57 72 76 79 68 69 59 51 49 47 43 42 36 37 38 34 37 48 55 57 62 68 77 92 77 72 90
72 72 75 72 72 73 62 52 50 52 51 51 55 57 51 42 45 64 79 93 95 70 61 57 54 55 51 48 43 38 39 36 38 49 56 58 71 86 91 88 90 81 87
66 54 52 59 60 54 51 60 65 56 49 50 41 41 50 57 72 72 86 82 74 76 73 60 61 63 59 56 53 50 48 43 45 60 76 74 77 87 96 94 94 90 96
71 72 68 50 44 48 41 36 39 38 30 31 35 42 57 67 85 97 87 71 75 78 70 65 75 86 71 71 69 55 54 48 49 72 90 98 96 92 92 100 99 91 89
41 33 35 45 35 26 24 29 30 29 31 39 41 47 53 61 71 78 77 72 67 66 66 85 100 95 78 83 83 70 61 52 50 59 75 86 86 82 80 76 80 78 71
30 26 28 30 32 29 30 29 29 24 26 35 54 56 62 64 57 58 61 68 69 75 84 100 100 98 84 93 97 98 79 65 62 67 71 79 85 82 77 73 69 69 66
20 12 11 12 12 14 15 18 22 24 28 29 34 43 48 53 54 59 63 74 80 83 92 100 100 94 93 99 100 97 83 68 60 64 74 80 83 80 75 68 62 60 58
8 5 4 4 5 6 6 6 8 8 13 28 32 36 42 47 51 50 60 70 87 96 100 100 100 96 100 100 100 94 78 71 67 70 69 69 71 68 68 68 62 56 55
10 4 3 3 3 3 4 6 8 7 8 13 27 42 53 56 50 56 76 76 96 100 100 100 100 100 100 94 86 83 77 77 73 78 74 66 66 69 64 61 60 59 57
12 8 4 4 4 6 6 6 7 9 10 23 39 54 68 61 56 72 97 100 100 100 100 100 100 100 100 98 92 84 85 84 85 79 75 70 66 62 66 64 62 61 54
51 19 8 7 7 9 8 12 15 21 30 44 52 56 62 67 81 100 100 100 100 100 100 100 91 100 90 97 92 93 87 86 81 80 79 87 92 84 77 65 55 51 51
64 43 30 28 28 31 31 39 38 46 52 54 63 70 84 100 100 100 100 100 100 100 100 100 98 94 93 95 96 88 82 81 84 92 96 84 76 70 59 54 64 68 54
100 98 86 80 73 69 71 72 73 79 96 98 99 100 100 100 100 100 100 100 100 97 96 95 97 100 97 92 85 78 81 96 94 84 81 69 60 64 69 68 58 40 37
100 100 100 100 100 100 100 100 100 100 100 100 100 100 100 100 100 100 99 97 81 82 93 96 99 97 87 83 86 95 88 81 82 75 74 78 78 68 52 37 38 47 49
100 100 100 100 100 100 100 100 100 100 100 100 100 100 100 100 100 100 100 85 79 79 74 82 94 94 93 95 88 85 83 82 89 87 79 68 55 44 45 52 50 51 43
97 88 91 69 99 100 100 100 100 98 100 100 99 96 80 79 69 72 79 94 97 100 100 100 100 97 93 89 84 89 93 87 79 72 59 52 54 61 58 55 53 41 29
90 75 82 92 80 82 77 84 68 91 88 93 94 89 100 97 96 100 100 100 100 100 100 93 92 88 89 97 96 90 80 69 57 61 68 67 62 59 53 45 34 24 16
91 99 100 100 99 88 75 97 98 84 96 100 100 100 100 100 100 100 100 100 100 93 88 93 96 96 97 95 76 61 57 69 77 69 61 56 53 46 38 26 18 12 9
98 99 95 100 100 100 100 100 100 100 100 100 100 100 100 100 100 97 91 88 88 92 95 96 100 92 76 64 56 72 82 80 70 60 53 45 38 28 19 14 10 8 5
92 89 94 90 96 97 95 97 97 100 100 100 100 96 90 88 92 92 89 92 94 96 99 94 81 70 61 74 85 78 65 56 50 44 39 33 21 14 11 8 6 4 5

GFSMW_250_rhum_057.txt.gz
RH
100 100 100 98 98 96 89 94 87 83 73 64 64 52 51 64 57 64 60 66 59 53 73 68 80 91 91 86 98 89 84 76 73 62 48 51 43 37 33 34 32 28 27
100 100 100 100 100 99 96 90 87 83 83 80 80 71 61 60 62 63 75 75 80 70 82 78 82 92 92 89 82 77 77 74 71 61 56 52 45 34 32 28 26 26 31
100 100 100 100 100 100 99 92 88 83 84 100 100 96 84 73 80 79 73 84 77 56 50 53 72 79 68 64 78 82 62 64 61 59 59 56 44 38 39 36 32 29 28
100 100 100 100 100 100 100 96 88 84 96 100 100 100 92 88 81 81 76 72 69 73 78 68 70 98 95 100 100 100 94 72 70 63 63 60 55 47 47 46 39 36 34
100 100 100 100 100 100 100 100 100 99 89 87 93 95 85 85 100 100 92 82 71 77 88 87 66 87 100 100 100 99 95 80 73 74 79 73 72 61 57 59 48 42 41
100 100 100 100 100 100 100 100 100 100 100 100 96 100 100 100 100 100 100 96 83 79 85 84 73 88 95 84 88 96 87 86 89 90 90 95 97 93 74 67 59 56 54
94 90 93 93 92 92 98 100 100 100 100 100 100 89 80 83 99 100 98 99 100 95 82 71 70 79 88 82 82 91 88 88 79 68 66 96 91 93 81 70 70 75 70
100 96 89 86 87 90 90 90 92 89 87 90 93 94 99 91 89 91 96 91 84 85 76 73 71 71 82 79 69 81 88 95 78 64 83 100 100 98 85 84 83 94 89
100 99 94 96 98 95 90 86 84 83 81 77 75 74 71 69 70 73 75 82 82 77 74 68 68 59 61 74 78 85 82 76 84 100 100 100 100 100 90 90 95 90 85
81 88 96 99 100 100 99 96 87 83 82 77 76 71 69 78 85 79 67 61 60 63 64 62 69 73 72 84 81 76 88 99 100 100 100 100 99 96 93 97 87 90 96
68 73 76 74 68 64 63 65 63 58 52 49 46 45 47 48 49 52 51 53 59 62 66 68 79 83 93 79 70 98 98 99 100 100 100 100 98 99 88 79 89 98 87
70 60 53 57 55 51 49 48 42 32 27 24 21 21 26 30 37 47 52 58 68 64 71 81 82 76 67 64 90 100 100 100 100 100 100 100 98 92 86 91 90 78 72
60 53 55 57 58 47 30 20 19 22 25 25 24 24 25 29 31 33 36 44 56 61 62 72 72 64 64 75 82 99 100 100 100 100 100 95 93 90 86 82 80 76 57
68 79 68 54 43 34 26 18 14 14 13 13 16 16 18 22 34 43 46 44 54 58 61 78 86 72 77 88 90 92 100 100 100 97 98 100 94 96 88 83 83 80 84
60 58 50 41 35 24 14 10 8 8 7 6 7 9 12 16 33 48 53 68 82 84 87 88 86 82 71 82 85 98 96 100 100 93 94 94 98 100 100 100 91 80 72
62 79 72 65 48 30 21 10 6 4 4 4 5 5 7 10 14 24 42 69 86 96 100 100 94 90 85 83 80 100 96 98 95 94 95 98 100 100 89 89 74 75 79
83 92 77 74 56 38 23 17 10 7 6 6 6 6 8 9 12 18 35 70 90 96 100 100 100 93 99 100 93 100 84 73 71 97 89 84 89 86 82 72 77 77 79
89 90 78 88 72 55 47 36 20 13 10 11 10 11 13 14 19 47 78 97 99 100 100 100 100 100 100 100 100 100 100 100 100 100 98 87 79 75 71 74 76 80 72
100 89 71 68 76 63 63 54 47 45 37 40 32 28 50 54 68 95 100 100 100 100 100 100 99 100 100 100 100 100 100 92 95 92 89 85 72 63 73 78 74 68 63
93 83 85 68 59 53 57 57 59 58 69 81 84 94 98 100 97 88 100 100 100 100 96 100 100 100 100 91 88 97 100 100 99 82 71 56 68 72 73 71 68 69 65
100 100 88 84 82 71 52 48 43 43 48 48 50 64 70 76 86 86 93 88 90 95 86 83 88 87 96 100 94 86 75 62 55 57 62 69 76 75 71 70 66 56 47
92 96 100 95 96 90 89 66 60 57 68 74 70 70 68 72 85 100 94 95 88 90 96 99 100 100 93 72 56 56 59 69 81 87 97 96 87 84 74 62 53 46 39
92 76 79 84 76 85 92 83 71 77 95 90 96 99 100 100 100 100 100 100 100 100 98 76 61 61 60 65 76 88 97 100 100 98 93 89 77 70 56 43 38 32 26
86 99 96 88 77 69 76 70 74 77 97 87 97 100 98 100 100 93 91 90 75 69 66 73 82 95 100 100 100 100 98 95 91 86 78 72 52 42 38 31 24 14 10
87 80 88 100 100 85 79 94 94 94 96 96 94 96 97 97 97 96 94 95 99 100 99 98 100 100 100 100 96 86 85 90 83 61 49 42 39 31 22 14 10 8 7
86 96 99 100 99 95 78 83 89 86 83 87 95 100 100 100 96 96 95 94 93 93 97 100 100 100 94 78 73 72 63 56 51 45 38 30 20 14 9 8 7 8 8

GFSMW_250_rhum_060.txt.gz
RH
100 100 100 100 100 99 100 100 94 94 84 93 91 91 97 97 99 99 97 100 98 88 81 60 75 71 70 65 60 45 40 45 54 65 60 53 50 49 47 53 57 59 61
100 100 100 100 100 100 100 97 98 100 98 97 100 100 97 98 100 98 97 91 84 83 84 76 72 70 87 81 82 63 58 53 49 45 51 56 50 43 44 49 57 64 69
100 100 100 100 100 100 100 100 100 100 100 100 100 100 100 100 97 99 93 87 80 78 84 82 81 88 90 87 80 80 86 74 72 58 48 51 52 52 53 51 51 56 61
100 100 100 100 100 100 100 100 100 100 100 100 100 100 100 99 96 92 85 88 88 80 76 80 85 95 100 98 94 93 94 96 92 87 83 72 74 69 71 75 68 68 64
99 100 100 100 100 100 100 100 100 100 100 100 100 100 100 100 100 100 100 98 92 93 83 88 99 100 95 94 94 100 100 95 86 84 83 91 91 87 92 99 95 90 87
99 94 93 94 96 100 100 100 100 100 100 100 100 100 100 100 100 100 100 100 98 94 100 99 98 100 99 94 99 100 99 94 86 84 81 93 100 100 100 100 99 100 92
96 100 100 98 99 100 100 100 100 100 98 93 92 93 96 100 100 100 100 100 100 100 95 99 88 87 92 100 99 96 80 87 97 88 91 100 99 100 100 100 98 93 99
100 97 100 99 90 86 84 86 90 99 100 100 99 97 92 88 87 89 93 98 100 100 100 100 100 100 100 100 100 100 99 92 100 100 99 100 100 100 100 99 99 97 96
100 100 96 90 92 96 95 96 97 92 84 80 86 84 74 66 62 55 51 60 81 99 100 100 100 100 100 100 100 100 94 100 100 100 100 100 100 100 100 96 93 98 93
93 100 100 100 100 98 99 99 99 98 94 89 92 96 90 78 70 68 74 81 89 93 98 100 100 98 100 94 97 94 88 100 100 100 100 100 100 99 95 99 98 92 70
89 90 92 95 100 99 96 93 93 93 89 83 78 73 73 77 79 81 82 85 88 89 95 98 99 99 92 90 88 94 100 100 100 100 100 100 98 100 100 97 91 100 100
78 82 80 74 70 68 67 66 61 58 50 43 36 29 24 20 21 28 33 40 52 62 72 76 78 76 79 96 100 100 100 100 100 100 100 100 100 100 100 100 99 99 94
71 64 55 53 56 52 51 52 46 36 30 23 18 17 21 24 24 24 24 27 35 45 52 70 86 93 100 100 100 98 93 92 92 97 100 100 100 100 100 100 100 96 94
78 76 63 62 57 55 55 36 37 31 25 21 19 19 19 15 15 19 23 26 30 38 45 55 73 77 82 90 95 87 92 88 89 96 100 100 96 97 100 99 80 79 84
68 75 81 74 61 50 37 30 28 22 18 12 9 8 8 8 10 11 16 22 32 38 41 52 56 69 91 99 100 99 100 100 100 100 100 100 83 97 100 94 90 82 90
77 75 59 44 45 50 41 35 32 26 18 9 6 5 5 5 5 7 11 20 33 45 53 70 97 97 100 100 100 100 100 100 100 88 96 100 78 83 89 89 91 79 65
50 54 48 62 61 72 60 44 38 29 26 13 8 7 6 5 6 8 11 22 34 48 60 78 91 100 100 100 100 100 100 100 100 88 100 100 100 90 82 71 68 79 78
57 66 68 65 94 81 73 54 54 44 37 26 19 12 8 7 10 17 27 38 47 62 78 92 98 98 100 99 99 100 100 100 100 100 95 96 88 87 89 90 91 81 74
94 89 83 76 76 85 82 68 57 55 47 51 36 25 20 25 30 47 63 81 83 83 97 100 100 100 100 100 100 100 100 93 80 73 72 85 91 90 72 78 92 86 80
67 88 95 72 72 85 85 85 63 67 60 51 50 52 62 67 75 77 67 93 100 100 100 100 99 76 93 92 95 82 73 75 81 91 99 93 85 81 74 67 68 64 59
68 82 79 84 93 84 76 71 80 71 70 81 80 76 65 60 55 59 57 56 56 59 72 69 64 68 77 85 88 95 100 100 100 98 95 82 71 69 72 72 60 49 47
88 77 74 86 87 94 78 64 68 79 76 62 64 80 86 76 68 70 76 83 89 95 95 98 100 97 100 100 100 100 100 100 93 83 85 83 82 88 65 53 53 51 51
76 69 62 66 71 76 70 68 64 72 80 87 82 84 85 95 96 95 96 98 98 100 99 99 100 100 100 100 100 99 100 100 100 94 98 99 82 66 58 53 49 40 30
91 79 73 78 89 93 94 83 82 82 85 91 94 100 100 100 96 97 100 100 100 100 100 100 100 100 100 100 100 100 100 100 95 84 87 77 62 52 46 40 32 23 16
89 78 96 91 93 95 95 77 79 87 89 86 86 91 93 99 100 100 100 100 100 100 99 98 98 100 100 100 100 93 88 91 90 76 66 57 48 44 40 28 17 10 8
90 77 81 96 97 99 98 95 94 87 91 99 96 100 100 100 100 98 93 96 93 90 93 100 100 95 87 90 96 100 87 76 71 65 56 46 43 35 20 12 8 7 8

GFSMW_250_rhum_063.txt.gz
RH
100 100 100 100 100 100 98 94 90 93 88 85 85 86 90 89 94 96 98 99 100 99 97 83 90 98 97 90 88 82 82 79 74 59 61 58 56 59 56 58 57 54 48
100 100 100 100 100 100 100 100 100 100 95 97 100 96 93 100 100 99 100 100 98 98 100 100 100 100 100 98 99 95 95 86 88 88 79 73 64 66 66 63 61 71 64
100 100 100 100 100 100 100 100 100 100 98 99 100 100 99 100 100 100 100 96 98 100 100 100 100 100 100 100 100 96 81 82 94 100 92 74 73 67 71 79 82 81 79
95 95 98 100 100 100 100 100 100 100 100 100 100 100 100 100 100 100 100 100 100 100 100 100 100 100 100 100 100 99 92 100 100 97 83 84 93 100 100 97 99 90 87
86 92 92 100 96 100 100 100 100 100 100 100 100 100 100 100 100 100 100 100 100 99 100 100 100 100 98 100 100 100 100 99 94 92 88 98 100 100 100 100 100 98 94
91 91 91 87 80 80 87 96 100 99 98 100 100 100 100 100 100 100 100 100 100 100 100 100 100 100 100 100 100 97 100 96 99 96 87 84 88 99 100 100 100 100 100
97 100 98 82 80 78 84 93 94 99 100 100 100 100 100 100 100 100 100 100 100 100 100 92 90 96 99 100 100 100 100 100 100 100 98 100 100 100 100 100 100 98 100
96 99 87 81 84 88 92 93 92 94 90 86 86 86 84 85 93 98 100 100 100 100 100 100 97 97 100 100 100 100 100 100 100 100 100 100 100 100 100 100 100 83 93
100 100 97 90 92 97 93 86 84 81 86 96 100 100 100 91 86 89 87 83 87 90 92 97 100 100 100 100 100 100 100 100 100 100 100 100 100 100 100 100 97 99 95
100 100 100 100 100 100 100 98 100 100 100 99 96 93 92 86 82 80 75 72 72 77 82 91 98 100 100 100 100 100 100 100 100 100 100 100 100 100 98 100 100 100 99
95 100 100 100 100 100 100 100 97 96 94 90 83 80 78 73 72 70 68 68 68 75 84 90 93 94 99 100 100 100 100 100 100 100 100 100 100 100 100 99 98 97 100
64 64 74 81 86 100 100 96 88 83 82 78 70 67 66 63 51 38 33 32 34 39 43 54 61 71 81 95 98 100 100 100 100 100 100 100 100 100 100 88 100 98 78
66 64 75 85 89 88 83 75 75 72 65 56 49 48 41 32 23 16 14 16 17 19 24 31 39 45 52 64 85 92 100 100 100 100 100 100 100 100 94 97 100 100 94
72 85 90 87 80 77 73 65 61 54 44 47 44 39 31 24 22 19 17 14 12 14 19 22 27 35 45 61 75 93 100 100 100 100 100 100 99 98 93 98 100 100 100
80 76 73 72 75 69 57 58 62 52 43 40 34 28 23 21 17 16 15 13 13 14 15 18 24 34 44 46 70 89 96 99 97 100 100 99 100 91 100 100 100 92 79
83 78 81 78 66 55 73 53 48 43 40 28 25 18 14 9 10 9 9 8 8 8 10 14 22 34 49 51 70 92 96 100 100 100 94 84 100 100 100 100 94 88 81
88 94 97 81 58 50 56 54 50 62 51 46 30 18 11 11 8 8 8 9 9 10 11 29 37 45 57 64 77 90 100 100 100 100 99 91 97 100 85 75 67 72 74
82 65 54 47 52 54 78 56 65 80 69 56 56 50 36 24 16 18 13 16 22 38 58 59 61 76 73 75 82 91 92 92 88 84 79 81 83 74 74 80 81 92 88
50 51 54 52 59 69 73 65 82 70 81 63 64 61 67 52 42 36 31 46 61 66 75 98 100 88 89 88 83 88 88 74 65 68 72 80 83 90 93 98 94 96 89
53 60 60 59 64 76 72 71 86 68 84 77 69 68 72 72 70 70 59 55 60 59 58 58 64 58 54 62 63 85 92 91 92 98 100 98 93 93 100 100 100 94 84
62 65 66 67 70 76 75 74 63 62 66 83 82 78 81 78 81 77 73 79 81 80 80 79 78 83 89 92 96 99 98 99 100 100 100 100 100 100 100 98 84 74 66
69 73 84 81 69 68 78 71 67 64 68 72 76 82 81 86 87 81 78 85 91 93 97 97 98 100 100 100 100 100 100 100 100 100 100 100 100 100 90 80 72 66 62
80 80 81 80 80 74 69 84 82 70 66 84 81 88 95 92 91 92 95 96 95 96 98 97 94 95 99 100 100 100 100 100 100 100 100 100 96 91 91 79 66 54 45
99 88 88 82 82 78 86 87 84 69 66 70 80 84 82 79 86 91 91 95 99 100 100 99 91 89 89 97 100 100 100 100 100 100 100 100 96 82 68 55 46 42 36
79 87 99 80 90 88 84 85 80 70 71 71 73 71 78 86 91 89 88 92 98 98 93 84 78 73 74 86 97 100 100 100 100 96 86 82 74 60 47 43 38 26 18
76 86 94 75 76 86 88 84 81 82 83 82 83 90 98 100 100 97 98 97 92 80 78 74 74 73 81 92 100 99 95 89 81 74 70 62 56 45 38 32 18 13 12

GFSMW_250_rhum_066.txt.gz
RH
100 100 100 100 100 98 95 81 77 84 88 91 84 87 83 83 81 75 83 85 83 80 74 71 65 74 92 100 100 100 100 100 100 100 100 100 97 87 76 86 77 77 74
100 100 100 100 100 100 100 100 94 99 96 93 94 91 90 94 95 92 93 99 87 80 74 88 96 96 100 100 100 100 100 100 100 100 100 98 98 90 86 84 82 86 79
100 100 100 100 100 100 100 100 99 96 85 84 83 96 99 100 100 100 100 97 98 100 99 99 95 94 90 93 97 100 100 100 100 98 94 99 99 98 100 96 86 79 100
100 100 100 100 100 100 100 100 100 100 99 95 93 98 100 100 100 100 100 100 100 100 100 100 100 100 100 100 99 100 100 100 100 100 97 90 96 95 94 84 77 98 93
100 100 100 100 100 100 100 100 100 100 100 100 100 100 100 100 100 98 96 100 100 100 100 100 100 100 100 100 100 100 95 88 89 97 100 100 100 99 100 88 100 100 100
100 99 99 98 96 100 100 99 96 97 97 100 100 100 100 100 100 100 100 100 100 100 100 100 100 100 100 100 100 100 100 100 100 100 100 100 100 99 99 100 100 100 100
85 86 87 85 86 86 84 75 76 82 96 94 95 91 74 79 92 100 100 100 100 100 100 100 100 100 100 100 100 100 100 100 100 100 100 100 100 100 100 100 100 100 100
73 73 70 69 76 77 71 64 69 76 71 76 87 74 74 81 94 96 100 100 100 100 98 99 100 98 92 94 97 100 100 100 100 100 100 100 100 100 100 100 100 100 100
100 98 91 74 72 73 69 66 70 74 74 77 73 74 81 92 87 88 91 85 82 85 87 91 96 99 96 98 96 100 100 100 100 100 100 100 100 100 100 100 100 100 100
100 100 89 81 84 83 83 84 81 75 75 78 83 82 76 73 79 85 91 90 91 89 90 97 100 100 100 100 100 100 100 100 100 100 100 100 100 100 100 100 100 100 100
100 100 98 100 100 100 100 100 100 100 100 100 100 100 99 92 96 99 97 93 94 100 100 100 99 97 96 95 94 92 97 92 100 100 100 100 100 100 100 100 100 100 100
100 100 100 100 94 90 92 91 92 97 97 97 99 98 88 77 73 76 83 78 64 58 56 61 59 61 67 72 74 78 97 100 100 100 100 100 100 100 100 100 100 100 100
84 81 70 60 63 71 72 70 72 70 67 64 61 59 64 61 52 45 36 23 17 15 16 16 18 21 24 29 37 44 54 69 92 99 100 100 100 100 100 100 100 100 100
77 77 83 83 80 77 73 65 60 60 64 64 60 58 55 48 43 30 17 18 16 15 16 17 17 16 16 19 25 30 41 62 75 90 88 97 100 100 100 100 100 100 94
86 83 88 80 74 72 63 63 67 64 58 53 60 59 50 43 36 27 19 16 16 17 17 17 14 12 13 14 18 29 39 48 59 67 81 95 97 99 100 97 93 88 85
81 80 79 76 76 70 69 64 56 51 63 68 55 50 44 32 27 19 13 12 12 11 13 16 14 12 11 12 13 20 38 54 61 68 84 100 99 100 98 98 93 91 86
83 84 74 70 66 64 60 56 74 69 53 56 56 51 46 36 31 35 30 31 33 31 26 18 17 15 17 20 26 34 48 59 68 69 84 99 99 98 98 79 74 75 81
80 78 74 72 72 76 73 64 54 52 56 62 61 58 54 46 46 56 54 61 53 49 39 32 34 41 54 59 68 71 74 74 75 79 93 98 96 89 88 90 90 79 79
91 91 92 87 80 59 52 52 58 62 62 66 69 70 60 59 56 58 67 66 67 65 66 66 64 57 56 58 61 70 80 85 84 83 85 81 77 78 85 81 79 80 82
98 88 62 56 51 52 58 64 69 69 67 76 67 67 71 69 68 76 70 65 68 63 65 66 70 76 82 82 82 78 77 78 75 81 88 92 93 88 98 100 97 98 100
62 60 55 52 56 68 66 68 75 75 76 77 62 64 65 74 79 90 85 82 76 74 77 86 88 87 85 82 82 84 88 91 93 96 97 100 100 100 100 100 100 100 100
60 59 60 67 68 75 84 71 77 91 87 86 72 64 64 73 74 72 71 73 72 77 84 90 92 94 97 100 99 100 100 100 100 100 100 100 100 100 100 100 99 86 68
71 72 76 77 79 82 81 78 81 86 97 96 81 64 66 67 76 80 78 88 97 98 95 93 94 98 96 91 83 82 90 96 100 100 100 100 100 93 85 79 72 60 53
91 87 86 92 94 91 86 84 87 92 89 72 66 67 71 76 79 77 84 95 99 98 93 87 85 87 85 78 76 75 83 91 93 88 84 83 80 74 68 63 58 48 40
83 76 75 77 85 90 82 80 82 85 81 76 77 77 73 75 79 76 85 99 99 89 87 92 89 81 84 78 76 74 74 75 75 78 79 75 68 61 53 46 38 28 22
67 66 70 71 78 87 82 81 86 85 85 80 75 76 78 79 79 91 95 94 91 90 93 96 90 79 77 77 78 78 74 76 78 76 70 61 53 44 38 32 22 22 17

GFSMW_250_rhum_069.txt.gz
RH
100 99 100 100 100 100 100 95 94 91 82 78 80 84 74 70 82 82 83 86 90 88 84 77 74 78 76 79 76 86 91 94 100 84 76 97 100 100 100 97 96 88 82
100 100 100 100 100 100 99 100 99 100 98 95 100 99 92 97 90 89 86 88 83 76 82 80 84 80 81 88 95 88 93 96 95 100 99 100 100 100 100 100 100 100 100
100 100 100 100 100 100 100 100 100 100 100 100 94 100 100 100 96 98 92 81 76 78 79 80 83 83 92 96 99 100 100 100 98 100 95 100 100 100 100 100 100 94 91
100 100 100 100 100 100 100 100 100 100 100 100 100 90 89 93 91 83 81 80 72 78 79 92 99 88 86 98 92 100 100 100 100 98 100 100 100 100 100 98 100 100 100
100 100 100 100 100 100 100 100 100 100 100 100 95 94 82 80 74 66 64 58 67 76 86 83 86 89 87 100 100 100 100 100 100 100 100 100 100 100 100 100 100 100 100
100 100 100 100 100 100 100 100 100 100 100 100 97 87 73 73 81 75 72 73 66 66 79 89 88 77 89 100 100 98 100 100 100 100 100 100 100 100 100 100 100 100 100
100 100 100 100 100 100 100 100 100 100 100 100 100 93 88 86 91 82 76 75 80 84 83 74 74 83 91 99 100 100 100 100 100 100 100 100 100 100 100 100 100 100 100
100 100 100 100 100 100 100 100 100 99 100 99 97 91 88 90 86 76 68 66 70 74 83 72 54 55 61 71 73 81 88 88 84 86 88 98 100 100 100 100 100 100 100
90 96 100 100 100 99 98 100 100 97 99 95 85 74 70 68 74 65 63 61 61 63 64 67 68 76 82 75 72 71 78 92 100 100 100 100 100 100 100 100 100 100 100
100 94 86 86 86 86 81 79 78 77 77 72 60 52 44 46 52 54 60 66 76 84 92 98 100 100 100 99 100 100 100 100 100 100 100 100 100 100 100 100 100 100 100
100 100 100 92 83 76 79 66 64 61 54 53 63 64 74 83 95 98 99 98 100 100 100 100 93 85 84 80 78 75 73 75 75 79 93 99 100 100 100 100 100 100 100
100 100 100 100 96 96 85 66 79 78 76 88 96 92 99 100 97 90 87 83 80 73 69 48 29 25 28 29 32 35 33 42 53 67 79 90 96 100 100 100 100 100 100
100 100 100 100 100 100 100 97 98 100 100 100 94 93 84 62 49 52 63 52 46 38 28 19 15 14 15 17 20 24 27 29 30 34 44 54 58 73 91 100 100 100 100
100 100 100 100 100 100 100 99 100 96 85 79 68 60 57 58 58 57 52 43 43 26 22 20 17 14 12 12 11 13 16 20 26 31 36 41 47 55 66 80 94 99 99
100 100 100 100 100 100 99 87 72 64 68 67 68 65 61 59 51 51 48 43 40 32 23 17 15 12 10 7 7 8 10 11 13 17 26 41 50 52 59 72 78 94 99
100 97 89 88 84 73 69 70 72 70 67 64 57 58 59 61 56 51 45 40 34 33 30 33 36 42 40 39 22 18 12 12 14 16 22 32 49 67 72 69 74 96 100
97 98 94 98 98 87 81 73 70 67 65 60 62 67 66 57 49 47 49 49 40 36 33 38 39 36 40 54 58 37 30 26 28 29 56 56 66 82 92 96 98 97 96
100 97 100 94 86 83 78 70 68 63 62 69 71 56 54 55 52 48 49 55 52 47 47 46 50 58 59 56 51 46 53 59 69 80 90 97 98 99 99 98 96 96 89
94 97 82 83 81 75 69 64 66 76 73 55 50 54 64 62 60 54 53 61 57 49 41 45 50 59 61 56 55 54 58 62 70 71 70 72 74 74 70 68 70 73 77
97 97 91 75 79 75 79 90 72 55 56 57 60 68 65 63 63 60 59 64 59 54 54 59 69 73 68 66 65 62 64 70 74 76 77 79 82 84 86 85 87 97 100
76 79 82 88 90 89 67 58 55 57 62 68 66 68 70 61 53 56 60 69 64 67 67 71 78 81 84 86 86 82 82 75 74 82 92 96 100 100 100 100 100 99 97
91 96 99 85 67 60 58 62 65 71 71 70 74 74 66 58 58 56 62 64 73 71 71 79 86 88 85 80 80 82 81 78 81 85 85 85 88 90 88 86 81 75 70
98 73 68 63 60 63 70 76 79 79 79 77 70 68 74 82 62 58 63 78 78 74 82 87 91 97 92 88 92 86 84 85 84 83 84 80 77 73 70 67 64 59 54
72 70 78 83 89 92 97 98 98 90 80 74 74 81 87 78 67 71 80 79 77 79 90 92 97 88 85 89 97 90 88 85 82 82 82 75 70 68 64 58 56 52 45
89 85 86 85 78 77 77 75 89 86 82 78 77 81 81 73 80 86 81 80 85 93 90 94 94 88 86 86 85 85 84 81 82 83 77 74 68 63 60 56 52 43 46
82 81 80 75 76 70 70 72 81 88 79 80 83 81 78 83 86 85 85 89 91 91 88 89 84 79 80 84 84 85 86 90 86 79 77 71 67 63 62 54 48 56 55

GFSMW_250_rhum_072.txt.gz
RH
100 100 96 93 100 100 92 88 100 100 100 98 100 89 97 100 99 91 93 89 80 71 73 73 62 70 66 66 68 64 65 70 67 74 86 92 98 95 100 99 100 100 91
100 100 100 100 100 100 98 100 100 100 100 100 100 94 90 97 100 100 97 83 81 80 78 77 77 65 63 63 67 61 61 60 64 84 90 75 80 100 100 100 100 100 100
100 100 100 100 100 100 100 100 100 100 99 97 99 100 100 100 100 100 100 94 86 80 82 76 75 66 63 58 59 61 62 76 77 77 84 82 81 86 100 100 100 100 100
100 100 100 100 100 100 100 100 100 100 100 100 100 100 100 100 100 93 91 90 93 75 73 82 79 80 68 67 74 72 78 79 87 95 100 83 94 100 100 100 100 100 100
100 100 100 100 100 100 100 100 100 100 100 100 100 100 90 100 100 96 89 86 79 85 90 73 69 69 67 70 77 72 74 97 98 98 96 83 99 100 100 100 100 100 100
100 100 100 100 100 100 100 100 100 100 100 99 100 100 96 85 92 98 92 81 82 72 75 62 56 60 62 69 72 68 65 72 74 73 84 68 71 80 97 99 100 100 99
100 100 100 100 100 100 100 100 100 100 100 99 94 97 100 87 84 82 80 76 79 78 78 82 77 70 67 58 58 60 58 57 53 64 63 71 78 87 97 91 88 96 93
100 100 100 100 100 100 100 100 100 100 100 100 89 94 89 84 89 82 83 92 92 91 86 80 76 56 50 47 43 49 49 52 56 67 83 94 100 100 100 99 99 100 100
100 100 100 100 100 100 100 100 100 100 100 100 100 100 100 100 99 99 100 89 80 76 76 61 55 58 55 55 56 52 53 56 75 97 100 100 100 100 100 100 100 100 100
100 100 100 100 100 100 100 100 100 100 100 100 100 100 100 100 100 99 89 71 66 53 57 73 68 62 57 49 62 53 41 33 26 28 33 37 54 66 87 97 100 100 100
100 100 100 100 100 100 100 100 99 100 100 100 100 95 94 91 81 68 63 54 50 60 68 70 82 78 69 34 28 27 21 18 18 19 22 26 31 37 49 68 90 100 100
100 100 100 100 100 100 100 100 97 96 95 88 82 71 72 64 55 55 50 60 80 96 100 94 72 45 31 30 22 19 21 18 18 20 18 19 21 28 32 39 58 80 95
69 79 97 99 100 100 100 97 93 94 89 82 75 67 64 77 64 75 89 81 100 92 69 52 55 39 32 28 24 20 17 15 14 9 8 10 10 13 26 37 43 50 57
100 100 100 100 100 100 100 100 100 99 93 89 87 97 87 97 94 94 100 94 73 52 51 47 45 39 34 30 27 21 18 13 13 12 10 9 9 11 15 23 44 59 64
100 100 100 100 100 100 100 100 100 100 100 100 100 100 100 100 98 90 67 53 54 51 45 46 42 40 38 34 32 34 42 46 42 31 19 12 14 14 16 22 33 43 56
100 100 100 100 100 100 100 100 100 100 100 100 100 100 95 84 62 55 55 54 53 54 47 43 43 42 41 38 34 33 39 47 50 46 39 40 34 32 30 38 42 47 57
81 100 99 99 100 100 100 100 100 100 100 100 88 67 65 63 56 55 58 64 56 48 46 52 48 50 50 41 36 38 41 45 43 44 46 47 47 51 63 80 87 92 94
100 100 99 94 94 98 100 96 97 94 85 77 70 72 65 57 58 67 67 56 49 45 50 52 56 55 44 44 41 44 50 53 52 52 49 47 49 54 62 67 71 76 78
98 97 97 92 91 95 88 85 89 91 93 83 77 71 64 70 75 59 54 57 55 50 50 52 58 53 55 56 54 55 58 57 58 57 56 55 55 61 64 67 71 74 75
95 96 94 90 94 90 98 96 96 99 87 76 69 76 85 64 57 52 55 60 53 54 51 54 57 58 62 64 63 65 68 71 70 72 77 81 81 82 84 84 80 78 78
100 100 100 99 100 95 96 91 83 80 76 87 81 61 53 52 55 58 61 59 54 54 54 57 56 64 67 68 71 74 76 79 83 82 78 80 81 83 84 85 81 77 72
100 100 97 88 83 88 86 79 86 90 77 60 53 52 57 62 64 65 60 57 67 62 58 57 67 72 70 74 74 75 74 73 74 77 84 90 96 93 87 79 71 68 64
85 83 84 80 77 83 97 93 69 58 56 64 63 69 76 75 66 59 68 80 69 62 62 71 74 70 78 75 73 76 74 74 76 80 85 85 79 77 73 69 66 63 64
84 83 92 100 98 84 69 60 63 69 77 83 83 79 74 70 72 80 83 78 72 77 79 74 74 80 81 77 78 76 75 79 85 86 84 81 78 76 70 62 62 68 63
100 100 97 77 75 72 78 81 86 78 75 75 85 89 81 74 76 78 81 82 80 81 82 81 86 87 82 80 77 80 85 91 88 86 88 85 82 77 72 66 67 58 39
93 82 80 76 83 88 89 87 78 72 70 73 74 80 76 73 76 80 83 86 91 95 96 96 92 92 86 83 80 78 84 94 92 91 93 86 81 75 71 64 64 48 62

GFSMW_250_rhum_075.txt.gz
RH
99 90 78 90 90 93 92 91 91 76 74 77 77 76 74 70 70 69 80 78 80 89 94 100 94 86 79 80 85 73 65 73 71 66 65 65 66 71 69 67 77 89 97
98 100 98 99 100 100 100 99 86 88 85 79 78 76 75 85 94 99 100 93 99 100 100 100 91 88 83 78 84 80 83 78 74 70 67 67 71 67 68 67 86 100 100
100 100 100 100 100 100 100 100 96 92 96 94 88 87 95 100 100 100 100 100 100 100 100 100 100 96 89 84 77 81 89 84 75 75 72 58 69 68 71 74 94 98 99
100 100 100 100 100 100 100 100 100 100 100 100 100 100 100 100 100 100 100 100 100 100 100 100 100 94 88 82 83 97 91 76 77 70 70 66 68 58 62 59 75 78 76
100 100 100 100 100 100 100 100 100 98 95 98 98 100 100 100 100 100 100 86 100 100 98 94 94 90 85 84 96 92 84 77 66 55 57 66 55 56 52 49 52 61 68
100 100 100 100 100 100 100 100 100 99 95 95 100 100 100 100 100 98 100 98 83 92 88 76 73 72 69 82 79 74 70 65 56 50 50 56 56 73 79 89 91 94 98
100 100 100 100 100 100 100 100 100 100 100 100 98 100 100 98 96 97 100 100 95 85 88 80 89 86 81 85 77 73 60 55 45 45 46 64 92 98 100 100 98 92 100
100 100 100 100 100 100 100 100 100 100 100 100 100 100 100 100 97 99 98 91 89 83 100 99 100 97 90 84 71 60 49 46 41 39 46 62 42 38 30 29 31 38 55
83 100 100 100 100 100 100 100 100 100 100 100 100 100 100 93 94 91 95 85 99 95 96 100 100 92 79 72 53 49 45 42 38 43 26 20 20 18 19 21 25 30 37
77 87 98 100 100 100 100 100 100 95 95 98 98 100 96 93 99 97 96 98 100 100 100 97 86 77 59 45 49 52 45 50 41 26 23 21 20 16 13 14 16 23 29
56 98 100 97 98 100 100 100 100 100 100 100 100 100 100 100 100 100 100 100 100 100 90 76 65 47 58 63 66 76 71 41 32 28 27 24 19 20 12 7 9 13 19
28 35 76 93 92 96 98 100 100 100 100 100 100 99 100 100 100 100 100 100 99 81 70 59 51 64 79 92 85 79 42 38 34 30 30 26 20 15 12 6 6 7 10
24 27 26 42 91 100 100 100 100 100 100 100 100 100 100 100 100 100 91 84 78 67 63 65 87 93 96 90 73 46 43 39 38 36 34 30 27 21 16 12 10 10 10
20 25 30 30 45 89 100 100 100 100 100 100 99 100 99 92 82 91 80 79 75 87 88 94 93 93 78 48 50 47 41 42 46 40 39 35 32 34 31 25 20 16 14
20 21 25 32 36 40 49 61 64 70 84 93 86 91 90 92 91 90 78 92 100 92 99 96 90 56 53 49 54 44 44 49 46 45 41 39 39 41 43 40 37 34 34
22 29 34 38 40 43 52 64 67 95 99 90 100 100 100 100 94 99 100 100 100 100 97 71 60 53 52 55 47 48 50 52 48 49 43 42 44 46 47 46 45 46 47
21 27 51 72 87 96 100 85 83 91 98 96 98 99 100 100 100 100 100 100 99 88 66 64 53 58 53 49 55 52 53 52 55 51 46 45 51 56 52 51 50 50 55
23 22 30 84 98 100 100 100 100 100 100 100 100 100 100 100 100 100 100 92 77 69 64 58 60 51 48 52 52 56 53 58 56 51 50 52 53 52 49 50 57 63 66
32 33 40 56 71 96 100 100 100 100 100 100 100 100 100 100 91 80 84 80 78 64 68 60 50 50 57 50 49 54 58 60 58 55 52 51 55 60 60 59 57 59 62
49 48 53 58 55 68 78 82 95 98 95 81 89 89 80 83 87 85 85 69 77 72 55 49 51 56 54 51 52 58 60 63 64 59 59 65 67 65 61 60 61 65 68
84 82 82 89 89 88 89 91 83 84 84 90 92 96 98 97 88 73 80 76 58 52 52 51 60 64 58 57 60 63 64 70 72 69 64 64 64 66 64 64 68 71 72
75 77 87 93 93 92 94 96 100 100 99 100 99 96 92 79 80 74 58 52 56 56 54 59 75 68 65 65 68 72 75 78 70 65 67 71 72 73 74 75 76 76 74
90 94 94 94 100 100 100 100 99 99 90 92 91 82 84 69 55 54 57 61 60 60 70 82 77 71 70 74 80 81 80 77 76 74 76 73 71 74 80 81 81 77 71
95 93 95 97 100 99 97 98 98 98 89 89 88 66 58 60 64 68 70 75 74 78 80 81 78 79 84 85 82 83 82 82 79 78 73 69 69 80 84 81 75 68 68
85 87 90 88 87 89 91 94 98 99 90 69 62 68 71 72 73 80 84 85 77 82 87 89 94 92 84 84 87 87 84 83 84 79 70 72 78 85 81 76 68 64 65
84 88 89 93 98 100 99 87 79 74 71 72 74 71 71 71 72 75 82 78 75 79 84 92 90 87 90 88 84 83 88 89 82 75 77 83 84 83 80 72 65 66 68

GFSMW_250_rhum_078.txt.gz
RH
100 84 60 75 100 100 77 82 97 100 99 100 97 93 89 84 86 84 83 86 81 88 91 85 88 88 100 100 100 99 100 98 92 90 84 83 73 78 73 89 75 61 51
100 100 85 85 86 100 100 99 97 100 100 100 100 100 97 95 92 90 87 88 88 85 91 96 93 99 100 96 94 100 100 94 93 88 89 79 87 96 83 70 64 52 52
98 100 100 99 97 94 100 100 97 81 83 92 99 100 100 100 100 99 98 97 100 98 94 99 99 100 94 99 97 90 100 100 98 95 81 83 85 83 68 63 50 44 46
80 100 100 100 100 100 100 100 100 100 89 82 85 91 100 100 100 100 100 100 100 100 100 100 100 100 100 97 100 100 100 100 91 86 93 86 77 72 58 49 46 45 46
74 88 100 100 100 100 100 100 100 100 100 100 100 92 91 99 100 100 100 100 100 100 100 100 100 100 95 99 100 100 97 96 79 98 85 87 67 54 46 46 47 53 56
85 86 98 100 100 100 100 100 100 100 100 100 100 100 100 95 88 86 86 89 92 93 95 92 94 98 100 100 100 100 94 97 98 88 85 70 54 45 40 40 53 50 28
52 87 89 98 100 100 100 100 100 100 100 100 100 100 100 100 100 100 100 100 97 87 84 83 94 93 96 97 87 85 86 92 85 79 73 55 42 37 35 44 31 24 22
18 60 96 98 100 100 100 100 100 100 100 100 100 100 100 100 100 100 100 100 100 100 100 100 99 96 91 82 86 84 82 79 75 64 52 38 31 40 45 28 24 24 28
18 19 43 88 100 99 100 100 100 100 100 100 100 100 100 100 100 100 100 100 100 100 100 100 100 100 98 93 97 92 85 78 68 53 37 31 41 57 35 31 27 29 22
19 18 18 21 52 89 92 85 88 97 99 100 100 100 100 100 100 100 100 100 100 100 99 97 99 100 96 97 100 91 76 63 50 41 39 62 66 42 35 33 34 28 22
18 18 18 18 20 28 49 76 81 84 90 94 95 95 100 100 100 98 100 100 100 100 97 100 95 100 100 93 88 74 61 45 44 49 62 61 43 40 37 40 36 33 25
16 16 16 17 17 19 20 21 26 44 73 82 84 80 90 90 92 85 89 100 92 100 91 100 90 99 99 84 65 64 44 66 62 80 67 45 43 39 43 40 41 37 35
14 15 15 15 15 16 18 19 20 24 39 68 94 95 100 96 90 96 91 96 75 100 100 99 99 86 73 60 68 57 84 69 91 74 49 46 41 45 44 43 46 40 37
16 15 15 14 13 13 16 19 22 24 36 47 56 86 96 93 92 100 98 95 89 100 96 78 76 69 74 73 81 94 84 89 64 54 49 43 47 49 45 48 43 40 39
16 16 15 14 14 16 19 24 28 30 37 48 65 96 100 100 100 98 100 100 91 89 73 80 83 91 93 99 95 92 85 61 55 52 46 50 52 49 49 49 45 41 39
16 17 17 17 16 17 19 22 25 26 28 33 34 45 64 62 75 89 80 76 74 94 100 100 100 100 100 100 98 77 66 58 54 45 50 53 57 52 56 50 47 45 43
17 17 18 18 18 18 18 23 26 29 38 42 43 58 72 74 89 78 88 78 100 100 100 100 100 100 97 90 68 68 58 53 47 49 51 55 56 54 57 56 52 47 46
16 17 18 18 18 18 22 32 46 59 59 62 75 74 81 100 83 80 100 100 100 100 100 100 97 96 81 72 59 61 50 50 52 53 53 57 57 61 62 57 56 58 61
17 18 19 20 23 30 51 52 74 77 97 97 97 100 100 100 100 100 100 100 100 100 100 94 81 82 73 62 56 51 53 52 54 58 60 62 68 69 69 67 66 66 61
21 20 20 21 24 31 52 62 88 100 99 100 100 100 100 100 100 100 100 100 100 91 85 84 85 66 70 53 53 54 57 63 63 66 71 75 73 76 73 70 68 66 59
36 33 32 30 28 30 35 47 69 95 98 98 100 100 100 100 100 100 98 83 87 80 86 70 73 57 55 58 57 68 69 68 75 77 85 85 85 81 75 73 73 66 62
51 53 59 61 69 70 69 65 60 62 63 71 86 93 96 95 87 80 96 88 85 70 71 59 55 60 60 61 75 76 76 81 81 84 85 89 85 80 81 80 72 64 58
62 67 71 86 92 89 89 91 91 88 89 92 97 98 95 95 100 95 85 75 73 61 60 64 69 72 74 79 80 80 83 85 90 92 90 86 89 92 86 78 66 62 61
72 75 79 81 82 90 94 97 100 99 100 100 96 96 92 91 90 79 78 66 60 73 77 82 85 78 79 83 81 82 87 92 95 95 94 94 95 85 75 66 66 66 73
89 94 93 91 88 89 91 92 94 92 90 96 99 99 96 88 87 78 62 72 74 74 76 78 89 80 77 75 84 87 92 99 98 94 91 86 79 72 69 72 75 77 75
96 96 95 95 96 95 95 93 92 94 94 94 93 96 98 90 73 74 77 74 74 70 73 82 83 80 82 88 88 97 97 95 89 86 85 81 75 74 74 74 76 74 74

GFSMW_250_rhum_081.txt.gz
RH
93 100 100 100 97 97 94 85 100 100 100 100 100 100 100 100 100 100 100 100 100 98 94 86 84 83 85 86 88 99 100 96 81 89 84 92 93 96 91 89 84 82 99
64 88 98 100 100 94 100 100 100 100 100 99 100 98 98 100 100 100 100 100 100 95 91 94 93 85 93 96 100 100 100 100 99 98 89 94 99 93 90 84 87 98 79
78 64 89 100 100 100 100 100 100 100 100 100 96 96 99 100 100 100 100 100 100 100 100 100 100 100 100 100 100 100 100 100 100 100 87 84 92 96 86 78 93 80 64
59 84 81 85 100 100 100 100 98 100 100 100 100 100 100 100 100 100 100 100 100 100 100 100 100 100 100 100 100 100 95 95 98 89 87 89 87 82 83 100 84 65 56
36 77 90 84 82 100 100 100 100 89 93 100 100 100 100 100 100 100 100 100 100 100 100 100 100 100 100 100 100 100 100 99 91 94 96 84 87 89 87 84 68 56 43
17 44 70 82 78 96 100 100 100 100 98 98 97 100 100 100 100 100 100 100 100 100 100 100 100 100 100 100 100 100 100 99 100 100 98 93 89 94 87 69 54 38 31
16 22 50 66 84 77 89 100 100 100 100 100 100 99 97 96 98 100 100 100 100 100 100 100 100 100 100 100 100 100 100 100 100 100 100 97 95 85 74 57 37 33 42
17 18 30 72 73 81 79 85 98 100 100 100 100 100 100 100 95 90 89 99 100 100 100 100 100 100 99 99 100 100 100 100 100 94 88 97 87 73 58 35 39 32 39
16 18 18 26 64 89 94 89 90 100 100 100 100 100 100 100 100 100 100 100 100 99 99 98 100 98 100 95 100 98 100 96 86 89 86 84 72 54 36 49 46 46 33
17 18 18 18 18 28 62 89 87 86 90 93 98 100 100 100 100 100 100 100 100 100 100 100 100 100 100 100 100 100 93 91 94 96 87 71 52 41 59 63 58 44 39
17 17 17 16 17 17 17 25 44 60 72 83 89 88 93 100 100 100 99 100 100 100 100 100 100 100 100 100 100 97 100 87 97 84 77 58 55 71 74 74 51 46 40
14 16 18 18 18 18 18 17 16 16 18 26 41 64 83 91 93 89 87 87 90 93 99 100 100 100 100 98 100 94 98 96 95 72 60 66 80 92 76 55 53 44 42
14 15 16 16 16 17 18 17 16 16 16 16 16 20 38 60 69 77 86 89 87 86 83 82 84 87 93 96 94 95 89 88 63 63 81 88 94 75 59 54 47 45 48
14 14 15 16 17 17 16 16 16 17 16 17 17 17 17 18 19 22 24 25 24 27 37 45 59 93 89 99 89 89 71 66 78 96 100 94 78 60 57 49 47 46 50
16 15 16 16 16 16 15 15 16 17 18 18 18 19 21 21 22 22 22 25 33 42 50 74 88 100 80 85 97 74 80 96 100 100 90 76 64 61 49 48 49 47 53
17 16 15 16 17 17 17 16 16 15 15 15 16 17 18 19 22 26 30 34 45 63 80 70 74 89 88 68 82 100 100 100 100 92 73 69 66 50 50 53 52 57 61
16 15 16 16 15 16 16 16 15 14 14 15 15 16 20 24 30 38 46 48 52 69 67 82 84 93 78 82 100 100 100 100 97 74 70 67 52 50 58 57 60 63 62
16 16 17 17 17 17 16 16 16 16 15 15 18 22 27 29 32 45 68 71 56 75 88 91 86 71 100 100 100 100 100 88 75 72 69 56 53 67 63 68 64 67 68
18 18 18 18 19 19 18 18 17 17 17 26 35 33 47 48 49 56 69 75 73 86 98 84 100 100 100 100 100 97 79 79 74 62 55 56 70 69 70 78 79 77 82
19 18 19 19 18 18 18 19 20 20 21 25 33 41 44 49 70 65 65 76 94 100 100 100 100 100 100 99 86 88 81 75 55 53 57 73 78 73 82 90 89 85 82
29 29 26 22 22 21 21 21 20 22 29 33 50 61 77 98 100 100 100 100 100 100 100 100 100 100 92 93 84 74 61 56 59 62 77 80 77 91 98 95 89 81 76
31 35 34 32 31 26 26 26 28 32 38 47 67 74 90 100 100 100 100 100 100 100 100 99 99 92 85 79 68 59 67 67 69 81 82 89 99 100 98 91 84 78 72
48 46 42 43 43 41 40 40 43 43 48 57 75 87 100 100 100 97 98 100 100 98 100 88 89 81 76 65 72 75 77 75 72 82 92 99 100 98 91 88 77 76 74
69 59 59 62 64 67 77 75 74 74 77 82 85 85 83 84 92 99 100 100 100 99 91 86 84 65 72 75 75 73 76 78 83 97 100 99 94 93 86 77 79 80 82
81 82 77 72 75 82 88 93 100 100 100 98 98 98 100 100 99 99 100 100 100 92 88 79 75 78 75 72 73 81 92 91 98 100 100 95 86 82 80 81 85 83 85
83 89 83 84 82 86 84 83 84 85 87 88 91 97 100 100 100 100 100 96 94 91 79 82 80 78 72 67 68 86 96 100 100 100 93 84 85 85 83 79 78 88 92

GFSMW_250_rhum_084.txt.gz
RH
17 55 90 100 100 100 70 74 97 100 100 100 100 100 100 100 100 100 100 100 100 100 100 100 100 100 100 99 98 95 85 86 86 84 90 94 99 95 86 93 89 86 85
17 17 78 100 100 100 100 74 72 90 100 100 100 100 100 100 100 100 100 100 100 100 100 100 100 96 99 100 86 87 86 87 80 90 100 100 100 100 97 100 93 87 83
19 17 26 87 100 100 100 97 90 67 92 100 100 100 100 100 100 100 100 100 100 100 100 100 100 100 98 94 92 82 93 100 100 100 100 100 100 100 100 98 88 81 82
18 20 19 63 98 100 100 100 98 100 96 89 99 100 100 100 100 100 100 100 100 100 100 100 98 95 96 94 100 100 100 100 100 100 100 99 93 99 96 100 91 89 86
17 18 20 20 81 100 100 100 100 100 100 97 98 100 100 100 100 100 100 100 100 100 100 100 100 100 100 100 100 100 100 100 100 100 100 100 97 100 96 89 99 95 94
18 14 16 21 34 95 100 100 100 100 100 100 100 100 96 93 97 97 98 100 100 100 100 100 100 100 100 100 100 100 100 100 100 100 100 98 100 98 94 98 100 94 93
21 17 15 17 23 44 96 100 100 100 100 100 100 100 100 100 100 99 100 100 100 100 100 100 100 100 100 100 100 100 100 100 100 100 100 100 100 100 100 100 94 92 76
26 21 19 17 17 22 53 89 100 100 100 100 100 100 100 100 100 100 100 100 100 100 100 100 100 100 100 100 100 100 100 100 100 100 100 100 100 100 100 99 86 69 80
22 21 18 17 15 16 18 52 90 94 98 100 100 100 100 100 100 100 100 100 100 100 100 100 100 100 100 100 100 100 100 100 100 100 100 100 100 100 100 83 75 64 51
21 21 20 18 17 15 16 18 30 72 84 90 94 98 100 100 100 100 100 100 100 100 100 100 100 100 100 100 100 100 100 100 100 100 100 100 100 96 87 84 72 53 46
21 21 21 20 18 16 17 17 18 19 32 67 87 90 90 93 95 99 100 100 100 100 100 100 100 100 100 100 100 100 100 100 100 100 99 94 84 92 90 76 62 64 74
21 19 20 22 21 20 20 20 19 19 18 18 26 55 87 100 99 99 100 100 100 100 100 100 100 100 100 100 100 100 100 94 91 87 83 87 90 90 82 72 62 83 83
20 19 17 17 18 18 19 21 21 21 20 19 20 19 21 34 52 70 79 94 96 95 85 70 59 48 54 72 72 61 51 53 55 70 88 82 95 75 87 74 87 89 79
24 21 19 17 15 16 17 18 18 19 19 19 20 19 19 20 19 19 20 21 22 22 21 21 24 33 35 38 47 48 45 59 76 83 82 96 80 97 84 93 91 87 64
23 20 18 17 16 15 14 15 15 15 16 17 17 18 18 19 20 20 19 20 20 20 22 27 27 33 48 42 47 47 52 76 76 98 94 91 96 90 100 94 90 70 60
24 21 18 18 16 16 16 16 16 16 16 17 17 18 18 18 18 18 19 19 22 19 36 42 24 27 24 44 57 74 75 86 87 100 83 100 89 100 93 78 74 68 48
21 20 19 18 17 17 16 15 14 14 14 14 15 15 16 16 17 17 18 24 22 23 22 24 26 36 56 59 69 75 90 98 98 81 100 100 100 89 77 79 66 50 52
19 18 18 17 17 16 15 14 13 13 13 13 14 15 16 16 17 16 17 18 19 20 26 34 41 62 69 89 90 92 100 90 98 100 100 100 87 83 72 61 52 56 75
21 17 17 17 16 15 15 15 16 15 14 14 15 16 17 17 17 17 18 22 24 28 35 58 64 79 83 86 96 100 88 100 100 100 94 90 89 72 58 60 59 77 79
23 23 20 18 19 19 17 15 17 18 18 18 19 19 18 18 18 19 22 30 50 54 56 65 75 80 83 85 89 100 100 100 98 92 98 84 70 60 63 66 83 82 82
27 25 24 23 22 22 22 21 20 20 20 20 19 19 19 20 22 29 34 53 55 58 63 63 88 100 100 100 100 100 100 94 92 97 84 69 69 74 76 79 81 88 86
35 30 29 23 22 23 24 24 23 22 21 21 21 21 21 22 22 23 30 54 61 92 100 100 100 100 100 100 100 100 93 93 93 80 70 74 73 81 79 82 91 88 84
40 48 42 38 33 31 28 27 26 25 25 25 24 22 23 28 42 65 71 79 86 94 100 100 100 100 100 100 100 99 93 90 74 73 75 74 84 86 91 93 87 83 74
72 62 72 66 55 46 46 43 44 44 37 31 32 39 43 55 60 63 77 81 97 100 100 100 100 100 100 99 97 95 88 74 76 76 73 72 96 100 92 86 83 77 84
76 72 74 78 85 68 59 57 62 70 73 72 72 72 73 77 85 89 93 99 100 99 100 100 100 100 97 100 100 85 80 78 74 65 65 80 97 92 88 84 83 88 90
63 78 73 77 90 88 87 86 89 94 96 93 91 94 98 98 96 98 100 100 100 100 99 100 100 100 100 97 84 82 75 68 62 64 82 98 95 88 88 88 92 98 92

GFSMW_250_rhum_087.txt.gz
RH
25 54 80 75 96 97 100 100 99 78 92 100 100 100 100 100 100 100 100 100 100 100 98 100 100 100 100 100 100 100 100 100 99 100 100 94 85 99 85 86 86 86 80
19 28 47 58 82 99 100 100 100 100 72 85 98 100 100 100 100 100 100 100 100 100 100 100 100 100 100 100 100 100 100 99 100 99 94 100 96 87 88 89 85 82 88
22 20 19 19 40 90 94 100 100 100 100 87 95 99 100 100 100 100 100 100 100 100 100 100 100 100 100 100 100 100 100 100 100 100 89 88 96 100 100 100 97 90 96
20 22 20 18 17 54 94 100 100 100 98 97 85 100 100 100 100 100 100 100 100 100 100 100 100 100 100 100 100 100 100 100 99 92 84 87 88 91 100 100 99 98 100
21 21 22 19 18 17 42 98 100 100 100 100 76 80 100 100 96 100 100 100 100 100 100 100 100 100 100 100 100 100 100 90 97 97 91 94 95 100 96 100 100 100 100
19 21 22 22 21 20 18 34 96 99 100 92 100 83 100 97 100 100 100 100 100 100 100 100 100 100 100 100 100 100 98 100 100 100 100 100 100 100 100 100 100 100 100
16 18 20 21 21 20 19 19 22 59 86 87 95 97 96 98 96 97 100 100 100 100 100 100 100 100 100 100 100 100 98 100 100 100 100 100 100 100 100 100 100 100 100
17 17 20 18 18 21 19 18 18 19 38 78 90 99 100 100 100 99 95 95 90 90 98 100 100 100 100 99 100 100 100 100 100 100 100 100 100 100 100 100 100 100 100
18 18 19 17 17 16 20 19 19 20 20 25 81 98 100 100 100 100 100 100 100 100 100 100 100 100 100 100 100 100 100 100 100 100 100 100 100 100 100 100 100 96 77
18 19 22 22 19 17 15 16 19 19 20 20 24 74 100 100 100 100 100 100 100 100 100 100 100 100 100 100 100 100 100 100 100 100 100 100 100 100 100 94 76 58 72
21 21 23 23 23 21 16 13 14 16 18 20 21 24 57 100 100 100 100 100 100 100 100 100 100 100 100 100 100 100 100 100 100 100 100 91 74 52 45 57 59 76 62
22 22 22 23 22 20 20 16 15 15 16 19 21 20 21 34 87 98 100 100 100 100 100 100 100 100 100 100 100 100 100 100 100 91 58 31 46 56 66 64 73 69 91
21 22 21 21 22 22 21 19 16 14 15 16 17 20 21 22 29 42 75 96 100 100 100 100 100 100 100 100 100 100 97 68 40 30 26 58 52 66 66 80 78 100 93
20 20 20 20 19 19 19 19 20 19 17 16 17 18 19 20 21 26 31 35 47 62 67 66 63 58 47 43 40 32 26 30 39 47 63 44 61 77 85 99 95 97 88
23 21 21 21 20 19 20 19 20 21 21 20 19 18 17 18 20 21 21 22 24 24 27 28 25 23 24 24 24 27 32 43 55 48 57 74 92 91 99 93 95 91 81
28 25 19 16 16 17 17 17 19 21 21 20 20 19 18 18 18 18 19 21 21 21 21 21 23 22 28 24 32 33 42 64 38 63 87 83 94 88 91 96 84 84 93
32 29 24 20 17 17 18 17 18 18 18 17 17 17 17 17 19 19 19 21 21 22 22 22 23 27 31 31 38 56 38 39 47 72 78 99 99 88 94 80 100 82 72
32 32 30 25 22 20 18 17 17 17 16 15 16 16 16 16 15 16 17 17 18 21 23 23 25 24 26 33 29 32 44 51 72 75 88 92 89 91 94 100 93 74 77
19 18 19 19 20 20 19 18 18 18 18 18 18 17 16 16 16 17 18 18 19 19 19 19 19 20 22 28 32 42 59 61 66 79 87 84 83 100 100 92 77 81 67
22 22 20 19 18 18 18 17 17 17 17 18 18 18 17 17 18 18 20 20 20 20 20 20 23 23 29 35 50 61 67 81 76 87 76 97 100 100 92 80 85 71 71
28 30 30 27 25 23 20 19 19 20 21 20 21 19 19 18 20 21 22 21 21 23 21 21 26 37 51 66 70 71 68 88 90 96 100 100 100 87 89 83 76 72 75
33 34 33 30 33 30 25 23 23 25 24 24 24 24 22 21 21 22 23 22 22 22 21 22 34 49 58 64 64 74 95 100 100 100 96 99 92 87 85 77 74 71 71
51 40 40 38 35 32 33 29 26 27 27 26 26 25 26 25 24 24 24 24 24 24 25 28 31 40 58 78 91 100 100 100 94 100 96 84 94 89 79 77 69 64 83
57 55 58 58 60 50 46 45 39 31 28 26 26 26 26 25 26 28 29 29 29 35 48 76 85 82 88 99 100 100 100 100 99 90 87 93 91 82 78 66 63 82 97
55 62 66 66 77 89 86 75 68 54 44 41 38 37 35 34 35 36 44 55 62 71 81 78 87 97 98 100 100 100 96 93 95 92 98 88 84 75 71 69 88 100 98
46 54 62 69 66 69 87 88 90 84 82 76 69 68 60 61 58 60 65 67 72 76 83 89 95 100 100 96 95 96 95 93 97 99 83 79 73 76 74 94 100 100 97

GFSMW_250_rhum_090.txt.gz
RH
19 19 17 17 37 58 85 77 76 94 100 100 100 98 100 100 100 100 100 100 99 90 84 89 98 100 99 99 100 100 100 100 100 100 100 100 100 90 91 89 72 70 74
21 21 17 16 18 49 61 85 77 93 100 100 100 99 100 98 100 100 100 100 100 100 100 100 100 100 100 100 100 100 100 100 100 100 100 100 100 100 90 86 75 78 76
21 20 19 17 17 22 33 73 90 83 100 100 99 85 100 91 100 88 98 100 100 100 100 100 100 100 100 100 100 100 100 100 100 100 100 100 100 98 100 94 83 84 87
20 20 19 19 16 17 18 34 85 92 99 100 100 100 100 100 100 100 90 100 100 100 100 100 100 100 100 100 100 100 100 100 100 100 100 100 100 100 100 100 100 97 96
17 20 21 20 18 17 16 23 69 94 100 100 100 100 100 100 100 100 100 100 100 100 100 100 100 100 100 100 100 100 100 97 100 100 100 100 100 96 100 100 100 99 100
17 18 20 20 19 19 19 18 44 91 99 100 100 100 100 100 82 97 100 98 100 100 100 100 100 100 100 100 100 100 100 100 100 100 100 100 100 100 100 100 100 100 100
19 19 19 19 20 20 20 17 22 57 94 100 100 100 100 100 100 100 100 94 100 100 100 100 100 100 100 100 100 100 100 100 100 100 100 100 100 100 100 99 100 100 100
19 21 21 21 22 21 20 20 18 25 53 78 94 100 100 100 100 100 100 100 100 100 100 100 100 100 100 100 100 100 100 100 100 100 100 100 100 100 100 100 100 100 100
19 20 21 21 21 22 22 22 20 19 20 20 23 53 100 100 100 93 81 85 100 100 100 100 100 100 100 100 98 100 100 100 100 100 100 100 100 100 100 100 100 100 100
17 20 20 20 20 22 22 23 23 22 20 18 19 19 36 93 100 100 100 90 85 90 100 100 100 100 100 100 100 100 100 100 100 100 100 100 100 100 100 100 100 100 97
16 18 21 21 21 21 22 22 23 23 22 20 18 19 19 20 32 66 86 95 95 99 94 100 100 100 100 100 100 100 100 100 100 100 100 100 100 100 100 100 100 80 35
17 16 17 21 20 21 20 19 19 20 20 21 21 21 20 20 20 21 21 23 30 52 77 85 100 100 100 100 100 100 100 100 100 100 100 100 100 100 100 67 33 28 46
20 18 18 17 20 20 20 21 20 19 18 18 19 19 20 21 21 20 20 21 22 23 26 45 94 100 100 100 100 100 100 100 100 100 100 100 100 69 38 37 38 45 54
23 22 19 18 17 16 16 16 17 19 19 20 20 18 19 18 18 20 21 22 22 24 26 30 36 47 64 93 100 100 100 99 97 96 89 69 41 32 38 46 67 58 65
24 22 21 20 18 18 18 18 18 18 18 18 18 19 19 18 18 19 20 20 22 24 24 30 44 49 41 56 84 80 66 56 46 41 37 39 32 50 45 62 57 67 71
25 22 20 19 19 18 17 16 17 17 17 17 17 17 17 17 17 17 19 20 20 22 24 26 30 33 35 35 36 33 33 33 30 30 36 31 36 50 56 48 56 66 77
24 24 23 20 19 18 18 17 16 17 18 18 19 18 16 17 17 18 17 19 20 21 21 21 22 23 22 24 25 25 26 28 32 32 29 40 47 48 43 66 66 82 94
24 26 28 24 20 17 16 16 15 16 17 18 18 18 19 18 16 17 17 18 19 21 21 22 22 22 22 21 23 26 28 28 29 40 38 32 33 52 62 72 91 96 99
23 31 33 31 30 26 21 17 16 15 16 17 18 19 19 19 19 18 18 17 20 21 19 21 21 22 22 23 21 21 23 29 29 23 23 30 45 55 90 87 92 85 96
28 25 32 31 30 33 28 26 23 21 18 18 18 18 19 20 20 19 19 19 19 21 20 20 21 22 21 21 22 24 24 22 25 29 40 64 73 92 89 91 95 100 100
31 28 31 27 26 24 22 22 21 20 20 19 18 18 19 19 20 20 21 23 22 24 24 23 23 24 24 25 25 25 26 31 47 65 80 88 94 88 94 98 97 96 91
38 34 32 28 32 33 30 27 25 24 25 24 23 22 21 22 23 25 26 27 24 23 24 26 29 28 27 26 25 32 42 59 61 80 78 80 81 100 99 99 94 94 82
48 46 43 44 43 41 40 36 36 30 28 28 26 26 28 27 28 27 27 28 27 27 26 27 26 27 26 28 35 42 48 64 58 64 73 94 100 100 97 96 92 89 88
50 50 53 56 64 57 53 60 49 46 43 41 33 30 29 29 31 30 28 27 27 28 28 28 27 28 30 31 47 51 52 62 76 83 98 100 95 96 99 91 86 89 83
47 48 51 51 60 64 77 80 74 63 63 60 58 49 38 32 31 31 30 33 37 35 34 40 42 40 44 48 68 71 74 82 97 100 99 100 100 99 92 88 91 81 78
43 43 43 48 54 57 70 82 84 81 81 81 79 73 63 60 52 46 44 44 45 47 54 63 66 68 73 74 81 86 91 93 99 100 100 100 97 88 94 88 78 75 72

GFSMW_250_rhum_093.txt.gz
RH
18 17 17 17 17 31 69 86 100 94 94 82 69 85 100 100 100 100 100 100 100 100 100 100 87 86 88 84 82 82 78 98 100 100 100 99 100 100 100 96 90 78 84
19 17 18 17 17 16 26 63 81 91 84 81 90 81 98 100 100 100 100 100 88 86 100 100 100 100 100 100 100 100 100 100 100 100 100 100 100 100 97 87 91 86 85
18 17 20 18 17 16 16 43 66 81 86 71 85 98 96 100 100 100 100 100 100 99 97 100 100 100 100 100 100 100 100 100 100 100 100 100 100 100 88 95 100 94 93
17 16 22 20 19 18 16 20 45 57 62 84 92 96 100 100 100 100 100 100 100 100 100 100 100 98 100 100 100 91 89 91 100 100 100 100 100 100 100 100 100 100 97
15 15 20 21 20 21 20 18 18 20 28 76 89 100 100 100 100 100 100 100 100 100 100 100 100 95 97 100 100 94 100 99 89 73 87 100 100 100 100 100 100 100 100
15 15 18 21 19 22 21 19 19 18 18 24 77 100 100 100 100 100 100 100 100 100 99 100 100 100 100 88 88 100 99 100 100 100 100 100 100 100 100 100 100 100 100
16 16 18 21 19 21 22 20 19 19 19 16 19 54 99 95 95 100 100 100 100 100 100 100 100 100 97 84 89 100 100 100 100 100 100 100 100 100 100 100 100 100 100
16 18 18 18 18 18 22 22 22 21 20 18 15 17 42 100 97 100 100 100 100 100 100 100 100 98 98 97 89 88 100 100 100 100 100 100 100 100 100 100 100 100 100
17 19 20 19 19 18 19 22 23 24 22 21 19 17 19 52 80 100 100 100 100 100 100 100 100 100 100 100 88 100 100 100 100 100 100 100 100 100 100 100 100 100 99
19 18 20 20 21 19 20 21 24 24 24 23 21 19 19 20 38 89 100 100 100 100 98 100 100 100 100 100 100 100 100 100 100 100 100 100 100 100 100 100 100 100 100
21 20 20 20 22 23 20 19 21 24 24 24 24 23 22 21 21 33 77 100 100 100 100 96 99 97 100 100 100 100 100 100 100 100 100 100 100 100 100 100 100 100 100
15 17 20 21 22 23 24 23 20 23 24 23 22 21 20 21 21 20 20 55 100 100 100 100 99 100 100 100 100 94 100 100 100 100 100 100 100 100 100 100 100 100 100
15 15 16 18 20 23 25 25 24 23 24 25 23 22 22 22 21 22 22 21 28 53 75 85 93 95 100 100 100 100 100 100 100 100 100 100 97 100 100 100 88 95 86
21 19 17 17 19 20 20 22 25 25 22 21 22 22 22 23 22 23 22 22 21 22 24 24 24 24 25 29 34 33 29 30 32 32 38 45 62 70 68 60 58 51 64
24 21 19 17 16 15 17 17 18 21 24 22 20 20 21 21 22 21 22 22 22 22 23 24 25 25 25 25 26 26 26 27 31 35 57 52 51 62 62 45 47 45 36
27 24 22 19 18 16 15 15 15 14 15 18 21 21 20 20 20 21 22 23 23 22 23 22 23 24 23 23 25 26 25 26 31 37 33 37 44 43 42 38 35 39 37
32 28 24 22 19 18 17 16 14 14 14 14 15 15 16 17 19 20 20 21 21 23 23 23 24 24 24 24 26 27 28 32 32 33 39 39 36 30 32 32 32 34 36
33 32 29 24 22 19 17 17 16 16 16 15 15 15 15 15 15 17 18 18 19 20 20 21 22 24 25 24 25 25 24 25 28 33 32 33 30 32 34 29 30 30 31
36 30 28 24 22 21 20 20 17 16 16 16 16 16 16 16 16 17 17 17 18 18 19 20 20 21 22 22 22 22 24 30 34 38 38 30 28 24 24 27 26 37 50
38 36 32 27 27 26 24 22 20 18 16 16 14 14 15 15 16 16 15 16 16 15 16 17 19 20 20 21 21 22 25 28 30 31 26 24 25 28 26 30 40 56 70
40 34 32 33 34 34 35 31 29 26 26 24 21 20 17 18 18 18 18 19 19 19 19 20 21 21 21 20 21 21 23 24 24 25 27 26 28 31 43 49 61 72 84
48 43 37 38 43 44 41 39 38 34 32 28 24 21 20 22 22 21 21 22 21 22 23 24 23 23 24 24 23 23 24 26 26 28 28 33 34 37 61 56 76 94 91
55 50 48 43 43 42 41 39 39 34 31 28 26 26 23 21 20 22 22 22 24 25 25 27 28 28 28 27 28 30 28 28 29 32 38 40 45 63 66 85 87 99 100
42 43 46 47 47 49 49 49 44 40 42 43 40 36 34 31 28 26 24 23 23 24 26 27 26 27 29 30 29 28 31 32 37 42 45 54 78 82 84 93 100 100 95
60 57 50 45 44 44 45 44 48 52 51 56 58 52 55 49 46 37 32 29 28 30 30 28 28 28 28 29 30 31 32 36 40 49 57 77 91 95 100 100 100 100 100
52 49 48 49 48 48 49 52 55 59 69 74 78 70 71 61 59 61 52 44 42 38 38 37 34 35 37 38 40 43 48 55 61 78 88 95 99 99 100 100 100 100 93

GFSMW_250_rhum_096.txt.gz
RH
27 19 18 18 73 58 54 66 77 81 87 84 76 60 68 81 89 97 100 100 100 100 100 100 100 100 100 100 100 100 100 100 100 100 100 100 100 93 97 96 79 95 94
29 25 21 18 18 39 50 51 53 60 73 81 89 71 57 58 77 100 100 100 100 100 100 100 100 90 80 80 97 99 100 100 100 96 91 94 86 90 76 81 84 77 84
19 24 27 19 18 17 23 18 25 27 41 59 66 76 71 67 72 90 92 100 100 99 99 100 100 100 100 94 87 83 76 75 88 95 87 85 84 84 81 79 81 83 84
21 23 28 27 19 18 17 21 30 17 22 29 39 79 86 81 72 88 100 100 100 100 100 100 100 100 99 99 100 84 81 82 76 86 73 76 74 66 88 99 89 82 99
24 22 23 32 25 20 18 18 31 21 16 16 16 18 90 100 85 82 100 90 100 100 100 100 100 100 100 100 100 100 100 86 80 69 70 77 91 97 86 99 96 92 88
23 21 18 26 28 25 20 22 19 25 26 19 19 18 23 79 89 80 95 99 89 100 100 100 100 100 100 100 100 100 100 100 98 69 62 81 75 86 86 76 79 82 95
22 21 19 22 25 26 24 21 24 22 20 20 20 19 18 24 35 74 84 92 92 99 100 100 100 100 100 100 100 100 100 100 100 93 64 63 65 86 79 96 96 98 100
27 20 20 24 23 22 24 24 22 23 23 22 21 21 21 20 52 68 89 75 82 69 96 100 100 100 100 99 100 100 100 100 99 99 100 91 97 100 99 100 100 100 100
26 22 22 25 21 22 21 22 22 21 21 21 21 22 23 24 20 23 51 81 72 86 88 100 100 100 100 100 97 100 100 100 100 100 100 100 100 100 100 100 100 100 100
32 29 26 23 25 24 22 20 21 21 19 20 22 24 26 25 23 24 21 25 34 50 97 100 100 100 100 100 98 100 99 100 100 100 100 100 100 100 100 100 100 100 100
31 30 28 23 26 28 21 23 21 19 18 18 20 23 25 26 25 24 22 23 26 33 54 68 91 100 100 100 100 100 100 100 100 100 100 100 100 100 100 100 100 100 100
38 37 33 26 26 28 25 24 24 21 20 20 21 20 21 27 28 26 24 24 25 26 26 28 42 57 100 100 100 100 100 100 100 100 100 100 100 100 100 100 100 100 100
40 38 34 26 28 27 24 24 24 24 22 21 20 20 19 20 23 25 25 25 24 24 22 23 24 24 32 74 100 100 100 100 100 100 100 100 100 100 100 100 98 72 37
38 36 33 31 30 28 26 26 26 24 24 23 22 21 20 20 20 20 23 23 26 24 22 23 22 23 24 25 33 70 90 100 100 100 100 100 100 92 59 36 29 33 39
32 24 22 22 21 20 21 22 22 24 25 24 23 23 22 21 20 20 20 20 22 23 23 23 23 22 22 23 24 26 28 33 44 51 49 37 31 30 29 31 32 33 39
34 24 20 20 19 18 17 16 16 16 16 17 20 22 23 24 24 23 22 22 22 23 24 23 22 22 22 23 24 24 24 25 26 28 28 28 28 28 29 31 32 32 38
35 27 28 26 21 18 18 16 15 15 15 15 15 16 17 20 22 23 22 22 22 22 22 21 20 20 22 23 24 26 27 27 28 29 29 28 29 29 30 32 32 41 47
33 28 33 31 26 22 19 18 16 15 15 16 16 17 16 16 16 17 18 20 20 21 22 23 23 23 24 23 23 23 24 26 27 27 29 28 28 28 27 29 36 44 68
46 38 33 31 26 24 21 18 16 15 15 15 14 14 14 16 17 18 17 16 16 16 16 17 18 19 20 22 23 24 24 23 25 27 28 30 31 31 31 34 47 52 58
42 38 34 31 35 31 28 26 23 22 19 17 16 15 14 14 15 14 15 16 16 16 16 16 17 18 18 18 18 19 20 22 23 24 27 27 27 28 30 33 40 42 36
44 44 43 41 37 33 31 34 31 30 29 26 25 23 20 18 15 14 14 14 14 15 15 15 15 16 17 18 18 20 22 23 24 25 26 27 28 29 30 29 30 28 32
62 54 51 49 48 43 44 45 42 42 42 42 38 33 28 24 22 19 19 18 18 18 18 17 17 18 19 21 22 23 24 25 24 25 28 28 27 27 28 31 33 42 42
53 54 53 52 51 54 55 56 52 54 55 52 50 42 36 35 32 28 26 24 21 19 20 24 26 26 25 24 24 25 25 27 29 30 30 31 33 36 38 42 54 61 58
64 64 67 73 74 70 64 58 53 56 52 50 44 42 40 36 29 26 25 21 20 20 19 20 21 22 24 24 25 26 27 29 30 32 32 34 44 48 49 65 76 73 72
52 56 57 52 50 52 50 53 51 50 50 49 45 42 39 37 36 36 32 30 32 30 29 28 25 24 24 27 27 28 29 31 33 35 38 38 43 47 50 64 77 76 82
51 54 56 60 55 52 47 48 49 46 43 42 39 38 40 44 45 52 50 50 50 50 42 39 40 41 40 39 36 35 37 37 38 39 41 43 53 64 72 78 79 81 83